GEFSGL_prec_meanprecacc_174.txt.gz
Total_Precipitation_Accumulation
0.88 0.91 0.91 0.89 0.87 0.88 0.89 0.84 0.84 0.83 0.82 0.81 0.82 0.85 0.87 0.91 0.95 0.99 1.03 1.11 1.15 1.19 1.25 1.36 1.46 1.59 1.59 1.49 1.54 1.65 1.78 1.88 1.69 1.66 1.63 1.45 1.35 1.22 1.11 1.05 0.94 0.88 0.75
0.81 0.84 0.89 0.88 0.83 0.80 0.76 0.74 0.76 0.77 0.78 0.78 0.77 0.79 0.81 0.86 0.92 1.00 1.05 1.10 1.12 1.12 1.15 1.26 1.31 1.38 1.48 1.44 1.39 1.40 1.57 1.73 1.72 1.73 1.85 1.78 1.56 1.40 1.29 1.17 0.97 0.83 0.80
0.81 0.85 0.84 0.85 0.83 0.76 0.66 0.65 0.64 0.66 0.71 0.70 0.67 0.66 0.68 0.78 0.88 0.93 0.97 1.01 1.08 1.15 1.11 1.11 1.12 1.19 1.38 1.51 1.50 1.47 1.51 1.63 1.74 1.75 1.86 1.92 1.71 1.50 1.48 1.33 1.17 1.16 0.88
0.74 0.76 0.72 0.70 0.70 0.71 0.69 0.63 0.59 0.58 0.62 0.65 0.64 0.67 0.68 0.73 0.79 0.82 0.82 0.81 0.83 0.89 0.92 0.91 0.89 0.93 1.10 1.37 1.45 1.57 1.61 1.61 1.71 1.76 1.85 1.95 1.99 1.78 1.71 1.57 1.44 1.34 1.15
0.69 0.70 0.67 0.67 0.66 0.64 0.60 0.56 0.54 0.52 0.48 0.55 0.60 0.64 0.68 0.68 0.63 0.64 0.67 0.61 0.60 0.58 0.60 0.64 0.66 0.69 0.71 0.85 1.04 1.32 1.52 1.60 1.64 1.75 1.83 1.92 1.96 1.99 1.75 1.62 1.55 1.52 1.43
0.55 0.56 0.63 0.66 0.63 0.62 0.56 0.51 0.49 0.50 0.53 0.57 0.59 0.58 0.57 0.52 0.55 0.55 0.53 0.49 0.47 0.46 0.45 0.46 0.45 0.45 0.47 0.53 0.61 0.82 1.07 1.32 1.57 1.74 1.81 1.86 1.91 1.97 1.92 1.79 1.69 1.58 1.58
0.48 0.51 0.52 0.56 0.60 0.58 0.51 0.49 0.47 0.48 0.53 0.56 0.56 0.59 0.57 0.57 0.52 0.49 0.50 0.46 0.44 0.44 0.45 0.45 0.35 0.30 0.36 0.42 0.47 0.52 0.65 0.78 0.96 1.34 1.62 1.66 1.74 1.84 2.00 1.96 1.89 1.85 1.79
0.52 0.54 0.53 0.53 0.58 0.60 0.55 0.52 0.53 0.55 0.56 0.58 0.59 0.61 0.63 0.61 0.55 0.49 0.47 0.42 0.46 0.50 0.47 0.47 0.43 0.38 0.38 0.43 0.50 0.51 0.47 0.52 0.61 0.74 0.91 1.09 1.31 1.64 1.88 1.99 2.09 2.14 2.17
0.55 0.57 0.56 0.55 0.58 0.60 0.59 0.62 0.65 0.69 0.63 0.58 0.63 0.69 0.71 0.70 0.61 0.53 0.50 0.45 0.48 0.52 0.49 0.48 0.49 0.44 0.41 0.34 0.41 0.49 0.50 0.51 0.51 0.58 0.64 0.80 0.96 1.16 1.43 1.63 1.77 1.94 2.21
0.57 0.57 0.57 0.62 0.67 0.69 0.73 0.82 0.86 0.88 0.82 0.76 0.73 0.76 0.76 0.79 0.70 0.55 0.52 0.52 0.55 0.59 0.61 0.59 0.54 0.48 0.42 0.37 0.39 0.49 0.53 0.53 0.57 0.60 0.58 0.59 0.65 0.75 0.94 1.14 1.29 1.50 1.76
0.69 0.71 0.71 0.75 0.83 0.87 0.98 1.07 1.10 1.06 1.06 1.04 0.98 0.95 0.95 0.89 0.81 0.61 0.54 0.56 0.64 0.74 0.74 0.72 0.70 0.59 0.44 0.39 0.40 0.45 0.48 0.53 0.61 0.69 0.73 0.73 0.71 0.69 0.75 0.88 1.07 1.16 1.27
0.88 0.89 0.90 0.98 0.90 0.88 1.08 1.16 1.23 1.28 1.23 1.17 1.17 1.11 1.07 1.02 0.86 0.68 0.58 0.61 0.67 0.83 0.91 0.88 0.81 0.67 0.52 0.44 0.41 0.39 0.39 0.40 0.48 0.60 0.68 0.74 0.75 0.69 0.70 0.80 1.01 1.17 1.17
1.06 1.08 1.10 1.14 1.17 1.18 1.29 1.31 1.31 1.32 1.28 1.22 1.23 1.21 1.16 1.12 1.02 0.79 0.68 0.65 0.66 0.76 0.85 0.84 0.77 0.63 0.55 0.49 0.47 0.44 0.39 0.41 0.49 0.56 0.61 0.70 0.74 0.73 0.76 0.87 1.03 1.20 1.22
1.19 1.19 1.27 1.37 1.37 1.40 1.49 1.48 1.42 1.39 1.38 1.32 1.30 1.27 1.24 1.24 1.22 1.10 0.90 0.79 0.74 0.71 0.75 0.80 0.78 0.70 0.61 0.58 0.58 0.53 0.49 0.53 0.61 0.62 0.66 0.74 0.84 0.87 0.89 0.89 0.99 1.09 1.19
1.34 1.37 1.44 1.53 1.58 1.61 1.54 1.51 1.46 1.47 1.41 1.37 1.34 1.30 1.29 1.25 1.16 1.06 1.01 0.97 0.91 0.88 0.89 0.95 0.97 0.90 0.82 0.79 0.79 0.78 0.77 0.74 0.70 0.72 0.77 0.83 0.90 0.93 0.92 0.96 1.01 1.06 1.04
1.46 1.48 1.52 1.54 1.60 1.60 1.58 1.48 1.36 1.28 1.19 1.13 1.13 1.12 1.09 1.02 0.97 0.90 0.86 0.84 0.87 0.93 0.93 0.97 1.08 1.13 1.08 1.01 0.98 0.98 0.97 0.92 0.87 0.88 0.91 0.90 0.90 0.91 0.91 0.98 1.06 1.06 1.03
1.46 1.49 1.48 1.47 1.51 1.54 1.54 1.53 1.43 1.33 1.18 1.07 1.01 0.94 0.91 0.90 0.89 0.89 0.90 0.91 0.90 0.92 0.94 1.01 1.13 1.20 1.25 1.23 1.16 1.08 1.04 0.98 0.92 0.92 0.92 0.93 0.93 0.96 0.98 1.01 1.05 1.08 1.06
1.42 1.44 1.39 1.34 1.36 1.41 1.43 1.48 1.51 1.47 1.40 1.26 1.14 1.04 0.91 0.83 0.83 0.88 0.91 0.93 0.90 0.89 0.94 1.07 1.19 1.27 1.34 1.33 1.23 1.15 1.08 1.00 0.94 0.95 0.97 1.00 0.99 1.01 1.02 1.01 1.02 1.04 1.06
1.38 1.43 1.44 1.44 1.45 1.47 1.50 1.57 1.60 1.55 1.49 1.40 1.25 1.09 0.95 0.85 0.83 0.87 0.87 0.85 0.91 0.96 1.02 1.15 1.23 1.25 1.22 1.19 1.15 1.13 1.06 1.00 0.98 0.98 0.98 0.99 0.98 1.00 1.03 1.06 1.07 1.10 1.07
1.34 1.40 1.47 1.43 1.41 1.45 1.54 1.62 1.64 1.64 1.65 1.63 1.51 1.26 1.06 0.94 0.92 0.94 0.89 0.89 0.91 0.93 0.96 1.06 1.16 1.19 1.17 1.13 1.10 1.04 1.01 0.98 0.97 0.97 0.98 0.96 0.99 1.01 0.98 1.02 1.07 1.06 1.05
1.38 1.35 1.39 1.37 1.36 1.38 1.45 1.52 1.57 1.56 1.50 1.48 1.43 1.24 1.11 1.03 1.03 0.99 0.95 0.93 0.91 0.89 0.95 1.06 1.12 1.12 1.07 1.03 1.03 0.98 0.95 0.96 0.95 0.94 0.98 1.01 1.03 1.03 0.98 0.97 0.98 0.98 0.97
1.43 1.38 1.28 1.28 1.29 1.34 1.36 1.39 1.41 1.35 1.28 1.26 1.23 1.12 1.05 1.02 1.04 1.02 0.96 0.92 0.87 0.82 0.84 0.91 0.98 1.01 0.97 0.93 0.95 0.98 0.97 0.95 0.97 0.96 0.95 0.96 0.99 0.97 0.94 0.94 0.95 0.98 1.01
1.35 1.33 1.24 1.16 1.12 1.16 1.18 1.21 1.22 1.17 1.13 1.13 1.11 1.04 1.00 1.01 0.95 0.88 0.83 0.78 0.76 0.75 0.75 0.79 0.84 0.85 0.84 0.82 0.85 0.90 0.90 0.86 0.87 0.91 0.94 0.95 0.95 0.89 0.89 0.90 0.89 0.94 0.97
1.23 1.22 1.19 1.09 0.99 0.98 1.04 1.12 1.12 1.08 1.07 1.01 0.93 0.88 0.87 0.89 0.83 0.73 0.69 0.68 0.68 0.66 0.66 0.69 0.67 0.65 0.68 0.71 0.73 0.74 0.73 0.69 0.70 0.75 0.78 0.83 0.87 0.83 0.84 0.85 0.82 0.86 0.97
1.02 1.03 1.04 1.00 0.89 0.84 0.93 1.01 1.00 0.94 0.90 0.85 0.78 0.76 0.74 0.72 0.71 0.69 0.65 0.63 0.62 0.61 0.56 0.56 0.59 0.59 0.59 0.59 0.59 0.59 0.56 0.54 0.53 0.56 0.61 0.67 0.76 0.81 0.82 0.83 0.86 0.93 1.02
0.87 0.87 0.86 0.84 0.78 0.73 0.78 0.88 0.89 0.82 0.79 0.73 0.65 0.63 0.64 0.65 0.66 0.66 0.63 0.58 0.57 0.54 0.50 0.51 0.54 0.54 0.51 0.51 0.49 0.44 0.41 0.39 0.41 0.45 0.47 0.55 0.67 0.76 0.78 0.82 0.83 0.88 0.94

GEFSGL_prec_meanprecacc_180.txt.gz
Total_Precipitation_Accumulation
0.92 0.96 0.94 0.95 0.96 0.97 0.96 0.88 0.88 0.88 0.87 0.85 0.87 0.91 0.93 0.96 1.00 1.03 1.05 1.13 1.18 1.22 1.27 1.38 1.49 1.61 1.60 1.50 1.54 1.65 1.79 1.89 1.70 1.67 1.64 1.45 1.35 1.22 1.11 1.05 0.94 0.88 0.75
0.83 0.88 0.93 0.92 0.88 0.86 0.82 0.78 0.80 0.82 0.84 0.82 0.82 0.84 0.86 0.90 0.98 1.05 1.09 1.13 1.14 1.14 1.17 1.28 1.34 1.40 1.50 1.45 1.39 1.40 1.57 1.74 1.73 1.73 1.86 1.79 1.56 1.40 1.29 1.17 0.97 0.83 0.80
0.83 0.88 0.88 0.88 0.86 0.80 0.70 0.70 0.69 0.71 0.76 0.74 0.71 0.71 0.73 0.82 0.93 0.98 1.02 1.05 1.11 1.17 1.13 1.13 1.13 1.21 1.39 1.52 1.51 1.47 1.52 1.63 1.75 1.75 1.87 1.92 1.71 1.51 1.49 1.34 1.17 1.16 0.88
0.75 0.77 0.75 0.73 0.73 0.74 0.72 0.68 0.64 0.66 0.69 0.71 0.68 0.70 0.73 0.78 0.84 0.87 0.86 0.86 0.86 0.92 0.95 0.93 0.91 0.95 1.12 1.39 1.47 1.58 1.62 1.61 1.72 1.76 1.86 1.96 2.00 1.79 1.72 1.58 1.45 1.35 1.16
0.70 0.71 0.70 0.70 0.69 0.68 0.66 0.61 0.59 0.58 0.55 0.62 0.67 0.69 0.73 0.74 0.68 0.69 0.71 0.66 0.65 0.63 0.64 0.68 0.69 0.72 0.74 0.86 1.05 1.33 1.53 1.61 1.65 1.76 1.84 1.94 1.98 2.02 1.77 1.64 1.57 1.54 1.45
0.56 0.58 0.66 0.70 0.67 0.66 0.60 0.56 0.54 0.55 0.59 0.64 0.67 0.65 0.63 0.57 0.60 0.61 0.60 0.57 0.55 0.54 0.52 0.52 0.50 0.49 0.50 0.55 0.63 0.83 1.09 1.34 1.59 1.77 1.84 1.89 1.95 2.00 1.95 1.81 1.71 1.60 1.59
0.49 0.52 0.54 0.60 0.65 0.62 0.55 0.52 0.51 0.52 0.58 0.63 0.66 0.70 0.68 0.69 0.63 0.59 0.61 0.56 0.53 0.51 0.51 0.52 0.41 0.34 0.39 0.44 0.49 0.54 0.66 0.80 0.98 1.36 1.64 1.70 1.78 1.87 2.03 1.98 1.91 1.88 1.81
0.53 0.55 0.55 0.55 0.61 0.63 0.59 0.55 0.57 0.58 0.60 0.64 0.67 0.71 0.75 0.71 0.65 0.59 0.57 0.52 0.55 0.59 0.55 0.55 0.49 0.43 0.43 0.47 0.53 0.53 0.49 0.54 0.63 0.76 0.93 1.11 1.33 1.65 1.89 2.01 2.11 2.16 2.18
0.56 0.58 0.57 0.57 0.60 0.62 0.62 0.65 0.68 0.73 0.67 0.63 0.69 0.76 0.81 0.79 0.69 0.61 0.59 0.55 0.58 0.61 0.55 0.54 0.54 0.48 0.45 0.38 0.43 0.52 0.53 0.54 0.53 0.59 0.65 0.81 0.97 1.17 1.44 1.64 1.78 1.95 2.23
0.58 0.58 0.58 0.64 0.68 0.70 0.76 0.85 0.90 0.93 0.87 0.81 0.78 0.81 0.82 0.85 0.77 0.62 0.58 0.58 0.63 0.68 0.71 0.67 0.61 0.54 0.47 0.41 0.42 0.52 0.57 0.56 0.60 0.63 0.61 0.61 0.66 0.76 0.95 1.15 1.30 1.52 1.77
0.70 0.72 0.73 0.78 0.86 0.91 1.02 1.12 1.16 1.12 1.12 1.09 1.04 1.01 1.01 0.96 0.89 0.68 0.61 0.62 0.71 0.82 0.83 0.81 0.77 0.65 0.50 0.44 0.44 0.50 0.53 0.57 0.66 0.74 0.77 0.76 0.74 0.71 0.77 0.90 1.09 1.18 1.29
0.90 0.90 0.92 1.01 0.94 0.93 1.13 1.22 1.30 1.35 1.30 1.24 1.24 1.18 1.14 1.10 0.95 0.78 0.68 0.70 0.76 0.90 0.98 0.95 0.87 0.73 0.58 0.50 0.46 0.44 0.44 0.45 0.52 0.63 0.70 0.76 0.77 0.72 0.72 0.84 1.05 1.21 1.21
1.08 1.11 1.13 1.18 1.23 1.24 1.36 1.41 1.43 1.42 1.37 1.32 1.33 1.31 1.26 1.22 1.12 0.89 0.78 0.75 0.76 0.84 0.92 0.92 0.84 0.70 0.61 0.53 0.51 0.47 0.42 0.44 0.52 0.59 0.63 0.72 0.76 0.75 0.79 0.91 1.06 1.24 1.25
1.24 1.24 1.32 1.43 1.44 1.49 1.59 1.59 1.56 1.52 1.48 1.46 1.44 1.40 1.36 1.36 1.33 1.18 0.98 0.87 0.83 0.80 0.84 0.88 0.85 0.75 0.64 0.61 0.60 0.55 0.50 0.55 0.62 0.63 0.67 0.75 0.85 0.89 0.91 0.91 1.02 1.13 1.22
1.40 1.44 1.52 1.62 1.68 1.73 1.65 1.62 1.59 1.62 1.55 1.51 1.49 1.43 1.41 1.36 1.26 1.15 1.09 1.05 0.99 0.95 0.95 1.00 1.01 0.93 0.85 0.82 0.81 0.79 0.78 0.75 0.71 0.73 0.79 0.85 0.92 0.95 0.94 0.98 1.03 1.07 1.05
1.50 1.53 1.59 1.63 1.71 1.73 1.71 1.61 1.49 1.42 1.34 1.26 1.27 1.25 1.20 1.15 1.09 1.00 0.94 0.91 0.93 1.00 1.00 1.03 1.12 1.16 1.10 1.03 0.99 0.99 0.99 0.93 0.89 0.90 0.92 0.92 0.92 0.93 0.93 1.00 1.08 1.07 1.04
1.53 1.57 1.56 1.55 1.62 1.68 1.69 1.67 1.57 1.46 1.32 1.19 1.13 1.06 1.02 1.00 1.00 0.98 0.98 0.99 0.98 1.00 1.01 1.08 1.19 1.25 1.28 1.26 1.19 1.10 1.06 1.00 0.95 0.95 0.95 0.96 0.96 1.00 1.03 1.05 1.08 1.10 1.07
1.48 1.51 1.47 1.44 1.49 1.56 1.59 1.65 1.68 1.63 1.55 1.40 1.26 1.16 1.03 0.93 0.92 0.96 1.00 1.02 1.00 0.97 1.00 1.13 1.26 1.33 1.39 1.37 1.26 1.19 1.11 1.04 0.99 1.00 1.03 1.06 1.05 1.05 1.06 1.04 1.05 1.06 1.07
1.42 1.49 1.52 1.54 1.56 1.60 1.65 1.71 1.74 1.67 1.62 1.53 1.36 1.19 1.05 0.95 0.92 0.96 0.95 0.94 0.99 1.05 1.10 1.23 1.30 1.32 1.28 1.24 1.21 1.18 1.12 1.07 1.05 1.04 1.03 1.03 1.02 1.03 1.06 1.08 1.09 1.12 1.09
1.38 1.45 1.54 1.51 1.50 1.54 1.64 1.71 1.73 1.73 1.73 1.71 1.58 1.33 1.11 0.99 0.98 1.03 0.99 0.98 1.02 1.04 1.06 1.16 1.24 1.28 1.25 1.19 1.16 1.10 1.07 1.04 1.02 1.02 1.01 0.99 1.01 1.03 1.00 1.04 1.09 1.07 1.07
1.42 1.38 1.43 1.41 1.42 1.45 1.51 1.59 1.65 1.64 1.59 1.57 1.52 1.36 1.21 1.10 1.10 1.07 1.04 1.03 1.00 0.97 1.03 1.15 1.21 1.20 1.14 1.09 1.09 1.03 0.99 1.00 0.98 0.96 1.00 1.02 1.05 1.04 0.99 0.98 0.99 0.99 0.98
1.46 1.41 1.32 1.32 1.34 1.40 1.43 1.46 1.49 1.43 1.36 1.34 1.31 1.22 1.18 1.12 1.12 1.10 1.04 1.00 0.94 0.90 0.91 0.98 1.06 1.08 1.03 0.98 1.00 1.01 1.00 0.97 0.98 0.97 0.96 0.97 1.00 0.98 0.95 0.95 0.97 1.00 1.03
1.39 1.35 1.26 1.20 1.16 1.23 1.26 1.28 1.29 1.24 1.21 1.20 1.18 1.10 1.06 1.08 1.02 0.95 0.91 0.86 0.83 0.82 0.83 0.87 0.90 0.91 0.89 0.85 0.87 0.91 0.91 0.88 0.88 0.92 0.95 0.97 0.97 0.92 0.91 0.93 0.92 0.96 0.99
1.30 1.28 1.23 1.14 1.04 1.03 1.12 1.21 1.21 1.17 1.15 1.07 0.97 0.91 0.90 0.92 0.87 0.76 0.72 0.72 0.73 0.71 0.70 0.73 0.71 0.70 0.72 0.74 0.76 0.76 0.75 0.71 0.71 0.76 0.79 0.85 0.88 0.85 0.85 0.86 0.83 0.88 1.00
1.07 1.09 1.11 1.05 0.95 0.90 1.00 1.10 1.08 1.01 0.96 0.90 0.82 0.80 0.77 0.75 0.74 0.72 0.69 0.67 0.66 0.65 0.59 0.59 0.61 0.60 0.61 0.61 0.61 0.60 0.57 0.55 0.54 0.57 0.61 0.68 0.76 0.82 0.83 0.85 0.88 0.96 1.05
0.90 0.89 0.90 0.87 0.82 0.77 0.84 0.94 0.94 0.88 0.84 0.78 0.70 0.68 0.69 0.70 0.71 0.72 0.68 0.63 0.60 0.56 0.52 0.53 0.56 0.55 0.53 0.52 0.50 0.45 0.42 0.40 0.42 0.46 0.48 0.56 0.68 0.77 0.80 0.84 0.84 0.90 0.96

GEFSGL_prec_meanprecacc_186.txt.gz
Total_Precipitation_Accumulation
0.96 1.00 1.02 1.03 1.03 1.05 1.02 0.94 0.96 0.97 0.96 0.92 0.93 0.98 1.01 1.04 1.07 1.11 1.12 1.19 1.23 1.26 1.30 1.42 1.53 1.66 1.65 1.53 1.57 1.67 1.80 1.91 1.72 1.68 1.65 1.46 1.36 1.22 1.12 1.06 0.94 0.88 0.75
0.87 0.93 1.01 1.00 0.96 0.93 0.88 0.84 0.87 0.90 0.91 0.88 0.89 0.92 0.94 0.99 1.06 1.13 1.16 1.20 1.21 1.19 1.23 1.34 1.40 1.47 1.56 1.49 1.42 1.43 1.59 1.75 1.74 1.75 1.87 1.79 1.57 1.41 1.31 1.19 0.97 0.84 0.80
0.86 0.93 0.96 0.96 0.94 0.87 0.77 0.76 0.76 0.78 0.82 0.80 0.77 0.77 0.81 0.89 1.00 1.05 1.09 1.12 1.19 1.26 1.23 1.23 1.23 1.30 1.47 1.58 1.55 1.50 1.54 1.65 1.77 1.77 1.88 1.93 1.72 1.53 1.53 1.36 1.18 1.17 0.88
0.77 0.81 0.81 0.80 0.81 0.81 0.78 0.73 0.70 0.72 0.75 0.76 0.74 0.77 0.79 0.83 0.90 0.93 0.94 0.94 0.95 1.00 1.03 1.02 1.00 1.02 1.18 1.44 1.51 1.62 1.65 1.64 1.74 1.78 1.88 1.98 2.02 1.81 1.75 1.60 1.47 1.37 1.17
0.72 0.74 0.75 0.76 0.76 0.75 0.72 0.67 0.65 0.64 0.61 0.69 0.74 0.76 0.79 0.80 0.73 0.76 0.78 0.73 0.73 0.70 0.71 0.74 0.75 0.78 0.79 0.91 1.10 1.37 1.57 1.64 1.68 1.79 1.88 1.97 2.01 2.06 1.82 1.68 1.60 1.56 1.46
0.58 0.60 0.71 0.76 0.75 0.73 0.65 0.61 0.60 0.62 0.65 0.71 0.74 0.72 0.69 0.61 0.65 0.66 0.66 0.65 0.65 0.63 0.61 0.59 0.57 0.56 0.57 0.63 0.69 0.87 1.12 1.37 1.63 1.81 1.87 1.94 2.00 2.05 2.00 1.85 1.75 1.64 1.62
0.52 0.54 0.57 0.64 0.70 0.69 0.60 0.57 0.57 0.59 0.64 0.69 0.72 0.76 0.73 0.73 0.70 0.67 0.70 0.67 0.65 0.63 0.63 0.61 0.48 0.41 0.46 0.50 0.54 0.58 0.70 0.83 1.00 1.39 1.68 1.74 1.82 1.91 2.06 2.01 1.95 1.92 1.85
0.55 0.57 0.56 0.57 0.64 0.69 0.65 0.61 0.63 0.65 0.66 0.70 0.74 0.77 0.81 0.76 0.71 0.67 0.67 0.61 0.64 0.67 0.64 0.63 0.58 0.52 0.51 0.55 0.61 0.60 0.56 0.61 0.67 0.78 0.95 1.14 1.35 1.67 1.92 2.03 2.14 2.18 2.21
0.58 0.60 0.59 0.59 0.63 0.68 0.68 0.71 0.75 0.80 0.74 0.69 0.76 0.84 0.89 0.86 0.76 0.66 0.65 0.61 0.65 0.68 0.63 0.62 0.63 0.57 0.53 0.45 0.52 0.61 0.61 0.60 0.57 0.62 0.67 0.83 0.98 1.18 1.45 1.66 1.80 1.97 2.24
0.60 0.60 0.60 0.66 0.72 0.75 0.82 0.92 0.99 1.01 0.94 0.89 0.86 0.90 0.92 0.95 0.84 0.68 0.63 0.62 0.69 0.75 0.80 0.77 0.70 0.63 0.56 0.50 0.50 0.60 0.65 0.64 0.66 0.68 0.65 0.64 0.69 0.80 0.98 1.17 1.31 1.53 1.79
0.74 0.77 0.77 0.81 0.91 0.98 1.13 1.22 1.27 1.23 1.26 1.24 1.17 1.14 1.15 1.08 0.99 0.77 0.69 0.68 0.79 0.93 0.94 0.90 0.85 0.74 0.59 0.53 0.51 0.56 0.60 0.65 0.73 0.80 0.84 0.82 0.78 0.74 0.79 0.92 1.11 1.21 1.33
0.95 0.95 0.98 1.06 0.99 1.02 1.25 1.33 1.40 1.46 1.43 1.38 1.39 1.34 1.29 1.24 1.06 0.89 0.78 0.79 0.85 1.01 1.08 1.03 0.93 0.81 0.65 0.57 0.53 0.51 0.52 0.52 0.59 0.69 0.76 0.81 0.81 0.76 0.76 0.87 1.08 1.25 1.24
1.14 1.16 1.20 1.24 1.31 1.35 1.47 1.52 1.53 1.52 1.49 1.45 1.47 1.46 1.41 1.36 1.24 0.98 0.88 0.85 0.84 0.92 0.99 0.98 0.91 0.77 0.68 0.61 0.59 0.55 0.49 0.50 0.58 0.64 0.67 0.75 0.79 0.78 0.81 0.92 1.08 1.26 1.28
1.30 1.31 1.40 1.51 1.53 1.60 1.71 1.70 1.67 1.63 1.60 1.61 1.61 1.58 1.54 1.52 1.47 1.30 1.08 0.96 0.90 0.86 0.89 0.94 0.91 0.81 0.70 0.68 0.68 0.61 0.55 0.60 0.67 0.67 0.70 0.77 0.87 0.91 0.93 0.93 1.04 1.15 1.24
1.46 1.50 1.62 1.72 1.79 1.84 1.75 1.73 1.72 1.75 1.69 1.67 1.68 1.65 1.66 1.60 1.49 1.36 1.26 1.18 1.12 1.07 1.04 1.08 1.09 1.01 0.92 0.88 0.88 0.86 0.83 0.79 0.74 0.76 0.81 0.87 0.94 0.97 0.96 1.00 1.05 1.09 1.06
1.56 1.60 1.68 1.72 1.82 1.83 1.82 1.73 1.60 1.52 1.47 1.39 1.42 1.43 1.43 1.39 1.34 1.20 1.11 1.06 1.07 1.12 1.11 1.13 1.21 1.25 1.18 1.10 1.06 1.04 1.03 0.96 0.92 0.93 0.96 0.95 0.95 0.95 0.95 1.02 1.10 1.10 1.07
1.61 1.65 1.66 1.65 1.72 1.79 1.81 1.79 1.69 1.59 1.45 1.32 1.25 1.18 1.14 1.13 1.14 1.13 1.12 1.11 1.08 1.09 1.09 1.18 1.30 1.35 1.37 1.35 1.27 1.18 1.13 1.06 1.00 1.00 0.99 1.00 0.99 1.03 1.06 1.08 1.12 1.14 1.11
1.56 1.60 1.56 1.54 1.60 1.68 1.72 1.77 1.80 1.75 1.68 1.54 1.38 1.27 1.13 1.03 1.02 1.06 1.09 1.10 1.07 1.04 1.07 1.20 1.33 1.40 1.48 1.47 1.35 1.27 1.19 1.10 1.05 1.06 1.09 1.12 1.10 1.11 1.11 1.08 1.09 1.10 1.12
1.49 1.56 1.60 1.64 1.68 1.72 1.77 1.82 1.84 1.78 1.75 1.64 1.45 1.28 1.14 1.03 0.99 1.02 1.01 0.99 1.05 1.11 1.16 1.29 1.36 1.39 1.35 1.31 1.28 1.26 1.19 1.14 1.12 1.11 1.11 1.09 1.07 1.08 1.10 1.12 1.12 1.15 1.12
1.43 1.52 1.62 1.59 1.59 1.64 1.74 1.82 1.84 1.84 1.84 1.80 1.66 1.40 1.18 1.05 1.02 1.06 1.02 1.02 1.07 1.09 1.12 1.22 1.31 1.35 1.33 1.28 1.24 1.18 1.14 1.12 1.09 1.08 1.07 1.04 1.06 1.07 1.04 1.07 1.12 1.10 1.09
1.46 1.43 1.49 1.48 1.50 1.52 1.59 1.66 1.72 1.72 1.67 1.62 1.58 1.42 1.27 1.14 1.13 1.10 1.07 1.07 1.04 1.02 1.09 1.21 1.27 1.26 1.21 1.17 1.16 1.11 1.07 1.07 1.05 1.02 1.05 1.07 1.08 1.07 1.01 1.00 1.01 1.00 0.99
1.50 1.46 1.35 1.36 1.38 1.44 1.48 1.50 1.53 1.50 1.45 1.42 1.39 1.29 1.25 1.18 1.18 1.15 1.08 1.04 0.98 0.94 0.96 1.03 1.11 1.14 1.10 1.06 1.07 1.08 1.06 1.02 1.03 1.00 0.99 0.99 1.02 1.00 0.97 0.97 0.98 1.01 1.04
1.43 1.40 1.30 1.23 1.19 1.27 1.29 1.33 1.35 1.33 1.32 1.30 1.28 1.18 1.11 1.13 1.09 1.00 0.95 0.89 0.86 0.86 0.87 0.92 0.96 0.97 0.94 0.91 0.93 0.97 0.96 0.92 0.92 0.95 0.98 0.99 0.99 0.94 0.93 0.95 0.93 0.97 1.01
1.34 1.33 1.28 1.17 1.06 1.06 1.15 1.27 1.28 1.26 1.25 1.16 1.04 0.96 0.94 0.96 0.90 0.80 0.75 0.75 0.76 0.73 0.73 0.76 0.74 0.72 0.74 0.77 0.80 0.80 0.79 0.75 0.75 0.80 0.82 0.88 0.91 0.88 0.88 0.89 0.86 0.90 1.03
1.11 1.14 1.16 1.11 1.00 0.95 1.05 1.14 1.12 1.05 1.00 0.95 0.86 0.84 0.80 0.77 0.76 0.74 0.71 0.70 0.68 0.67 0.61 0.61 0.63 0.62 0.63 0.63 0.62 0.62 0.59 0.57 0.56 0.59 0.63 0.70 0.78 0.84 0.85 0.87 0.90 0.99 1.08
0.93 0.93 0.94 0.93 0.88 0.84 0.89 0.98 0.99 0.92 0.88 0.81 0.72 0.70 0.71 0.72 0.73 0.73 0.70 0.65 0.63 0.59 0.55 0.56 0.59 0.58 0.55 0.54 0.52 0.46 0.43 0.41 0.42 0.47 0.49 0.56 0.69 0.78 0.81 0.85 0.86 0.91 0.97

GEFSGL_prec_meanprecacc_192.txt.gz
Total_Precipitation_Accumulation
1.04 1.07 1.11 1.12 1.12 1.10 1.06 0.98 1.01 1.03 1.02 0.97 0.98 1.02 1.06 1.09 1.12 1.16 1.17 1.25 1.28 1.31 1.35 1.46 1.57 1.70 1.71 1.60 1.64 1.72 1.85 1.95 1.75 1.70 1.67 1.47 1.37 1.24 1.16 1.10 0.96 0.89 0.77
0.94 1.01 1.11 1.11 1.06 1.00 0.93 0.88 0.92 0.95 0.96 0.92 0.95 0.98 0.99 1.02 1.10 1.17 1.21 1.25 1.25 1.24 1.28 1.40 1.46 1.54 1.63 1.56 1.49 1.48 1.64 1.81 1.80 1.79 1.89 1.81 1.59 1.43 1.35 1.25 0.99 0.85 0.82
0.93 0.99 1.02 1.04 1.02 0.93 0.83 0.82 0.82 0.83 0.87 0.85 0.83 0.83 0.85 0.93 1.03 1.08 1.13 1.18 1.25 1.31 1.28 1.29 1.28 1.37 1.54 1.65 1.62 1.57 1.61 1.72 1.85 1.85 1.93 1.97 1.74 1.54 1.54 1.38 1.19 1.18 0.90
0.84 0.88 0.87 0.84 0.85 0.87 0.84 0.79 0.75 0.77 0.81 0.83 0.81 0.83 0.86 0.89 0.94 0.97 0.98 0.99 1.01 1.06 1.09 1.08 1.07 1.10 1.27 1.56 1.63 1.72 1.74 1.72 1.83 1.88 1.96 2.04 2.06 1.85 1.78 1.63 1.49 1.39 1.18
0.79 0.81 0.80 0.82 0.81 0.79 0.76 0.71 0.70 0.69 0.66 0.75 0.80 0.82 0.85 0.84 0.77 0.80 0.83 0.78 0.79 0.77 0.78 0.80 0.81 0.86 0.88 1.02 1.19 1.44 1.62 1.70 1.74 1.86 1.94 2.02 2.06 2.12 1.87 1.72 1.63 1.58 1.48
0.62 0.64 0.75 0.82 0.79 0.76 0.69 0.64 0.63 0.65 0.70 0.78 0.81 0.78 0.74 0.64 0.68 0.71 0.72 0.72 0.70 0.68 0.67 0.67 0.66 0.66 0.68 0.74 0.78 0.96 1.20 1.44 1.68 1.87 1.94 2.00 2.05 2.10 2.03 1.88 1.77 1.65 1.63
0.56 0.58 0.60 0.68 0.74 0.72 0.64 0.61 0.59 0.63 0.70 0.75 0.78 0.82 0.78 0.79 0.75 0.72 0.77 0.73 0.71 0.68 0.68 0.68 0.55 0.49 0.55 0.59 0.64 0.67 0.81 0.95 1.09 1.46 1.73 1.79 1.86 1.94 2.09 2.04 1.98 1.94 1.87
0.60 0.61 0.59 0.60 0.67 0.71 0.68 0.65 0.67 0.70 0.71 0.76 0.80 0.84 0.89 0.83 0.79 0.74 0.74 0.67 0.70 0.74 0.71 0.70 0.65 0.60 0.59 0.64 0.71 0.70 0.66 0.69 0.76 0.87 1.02 1.20 1.41 1.73 1.97 2.07 2.17 2.21 2.22
0.61 0.63 0.61 0.61 0.66 0.71 0.72 0.76 0.81 0.85 0.78 0.76 0.83 0.93 1.00 0.97 0.87 0.76 0.74 0.69 0.73 0.76 0.71 0.69 0.70 0.64 0.60 0.54 0.62 0.70 0.69 0.67 0.65 0.70 0.76 0.93 1.09 1.29 1.54 1.72 1.84 1.99 2.25
0.64 0.63 0.62 0.67 0.73 0.77 0.85 0.98 1.05 1.07 1.00 0.96 0.94 1.00 1.04 1.05 0.94 0.78 0.74 0.73 0.80 0.87 0.91 0.87 0.81 0.72 0.64 0.59 0.59 0.67 0.70 0.68 0.72 0.75 0.73 0.73 0.77 0.87 1.05 1.21 1.35 1.56 1.81
0.79 0.81 0.80 0.84 0.94 1.02 1.16 1.27 1.33 1.29 1.32 1.31 1.24 1.22 1.24 1.18 1.09 0.89 0.84 0.84 0.96 1.10 1.09 1.03 0.95 0.84 0.70 0.63 0.62 0.66 0.67 0.71 0.80 0.87 0.89 0.86 0.82 0.78 0.83 0.96 1.15 1.25 1.36
1.02 1.03 1.05 1.13 1.05 1.08 1.31 1.39 1.49 1.57 1.54 1.47 1.47 1.42 1.39 1.33 1.15 1.00 0.93 0.94 1.00 1.14 1.20 1.12 1.01 0.88 0.72 0.63 0.60 0.58 0.58 0.59 0.64 0.74 0.81 0.85 0.85 0.80 0.80 0.93 1.14 1.30 1.29
1.20 1.25 1.30 1.35 1.39 1.42 1.54 1.60 1.62 1.63 1.60 1.54 1.56 1.56 1.51 1.47 1.34 1.08 1.00 0.99 0.97 1.02 1.09 1.07 0.98 0.84 0.74 0.65 0.63 0.59 0.53 0.54 0.62 0.68 0.72 0.81 0.85 0.84 0.87 0.98 1.14 1.32 1.33
1.36 1.39 1.51 1.65 1.68 1.70 1.79 1.79 1.76 1.73 1.70 1.71 1.71 1.67 1.64 1.63 1.57 1.40 1.20 1.09 1.01 0.95 0.96 1.01 0.98 0.87 0.76 0.73 0.71 0.64 0.59 0.64 0.72 0.73 0.76 0.84 0.93 0.97 0.99 0.98 1.08 1.18 1.27
1.50 1.55 1.69 1.83 1.92 1.96 1.84 1.82 1.82 1.85 1.79 1.75 1.75 1.73 1.76 1.73 1.63 1.49 1.39 1.32 1.25 1.19 1.13 1.14 1.15 1.05 0.95 0.92 0.92 0.90 0.89 0.84 0.79 0.80 0.86 0.92 0.98 1.02 1.01 1.04 1.09 1.13 1.10
1.58 1.63 1.74 1.82 1.92 1.93 1.91 1.80 1.67 1.59 1.53 1.45 1.48 1.51 1.52 1.52 1.46 1.30 1.20 1.17 1.19 1.25 1.21 1.20 1.28 1.29 1.22 1.13 1.09 1.08 1.07 1.01 0.97 0.98 1.00 0.99 0.99 1.00 0.99 1.06 1.15 1.15 1.12
1.65 1.71 1.73 1.73 1.80 1.88 1.89 1.85 1.74 1.63 1.51 1.38 1.32 1.26 1.22 1.21 1.21 1.19 1.19 1.19 1.17 1.17 1.15 1.23 1.35 1.41 1.43 1.40 1.32 1.22 1.17 1.11 1.05 1.05 1.04 1.05 1.05 1.09 1.13 1.16 1.21 1.23 1.20
1.61 1.68 1.63 1.62 1.68 1.80 1.85 1.89 1.90 1.82 1.73 1.60 1.46 1.34 1.20 1.10 1.09 1.13 1.18 1.18 1.16 1.13 1.16 1.28 1.39 1.46 1.54 1.54 1.42 1.35 1.26 1.17 1.11 1.11 1.14 1.17 1.17 1.19 1.20 1.18 1.19 1.20 1.21
1.55 1.61 1.66 1.73 1.78 1.83 1.89 1.95 1.97 1.88 1.82 1.70 1.50 1.34 1.21 1.10 1.07 1.10 1.07 1.04 1.10 1.18 1.23 1.37 1.43 1.44 1.39 1.35 1.32 1.30 1.25 1.20 1.17 1.16 1.15 1.15 1.14 1.16 1.19 1.22 1.22 1.25 1.21
1.48 1.57 1.69 1.68 1.69 1.74 1.84 1.93 1.96 1.94 1.92 1.88 1.73 1.46 1.24 1.11 1.08 1.11 1.06 1.06 1.11 1.14 1.18 1.27 1.36 1.41 1.38 1.33 1.29 1.22 1.19 1.17 1.15 1.14 1.13 1.12 1.14 1.15 1.12 1.16 1.20 1.17 1.15
1.49 1.47 1.55 1.55 1.57 1.60 1.68 1.75 1.80 1.80 1.73 1.70 1.65 1.50 1.35 1.21 1.19 1.15 1.11 1.11 1.09 1.06 1.13 1.24 1.31 1.30 1.26 1.22 1.23 1.18 1.14 1.15 1.13 1.11 1.14 1.16 1.17 1.15 1.08 1.06 1.05 1.04 1.02
1.56 1.51 1.40 1.40 1.42 1.49 1.54 1.56 1.59 1.55 1.51 1.49 1.46 1.37 1.32 1.24 1.25 1.21 1.13 1.08 1.02 0.97 0.98 1.05 1.13 1.16 1.12 1.08 1.10 1.13 1.11 1.08 1.09 1.06 1.05 1.05 1.08 1.06 1.01 1.01 1.02 1.04 1.07
1.48 1.44 1.33 1.25 1.21 1.29 1.32 1.35 1.37 1.36 1.36 1.35 1.33 1.23 1.17 1.18 1.14 1.06 0.99 0.93 0.90 0.89 0.90 0.94 0.98 0.99 0.96 0.93 0.95 0.99 0.99 0.95 0.95 0.98 1.01 1.03 1.03 0.97 0.96 0.98 0.96 1.00 1.03
1.38 1.36 1.31 1.21 1.09 1.09 1.17 1.28 1.30 1.28 1.28 1.20 1.09 1.01 0.99 1.00 0.94 0.84 0.79 0.78 0.78 0.75 0.75 0.78 0.76 0.74 0.76 0.79 0.82 0.82 0.81 0.78 0.77 0.82 0.84 0.89 0.92 0.89 0.89 0.90 0.87 0.92 1.04
1.14 1.17 1.19 1.14 1.03 0.98 1.07 1.17 1.16 1.09 1.04 0.97 0.88 0.85 0.82 0.79 0.78 0.76 0.73 0.71 0.70 0.69 0.63 0.63 0.65 0.64 0.65 0.65 0.65 0.64 0.61 0.58 0.57 0.59 0.64 0.70 0.79 0.84 0.86 0.87 0.91 1.00 1.09
0.95 0.95 0.96 0.95 0.90 0.85 0.91 1.00 1.01 0.94 0.90 0.83 0.73 0.71 0.73 0.74 0.75 0.75 0.71 0.66 0.64 0.61 0.57 0.57 0.61 0.60 0.57 0.56 0.54 0.48 0.45 0.42 0.44 0.48 0.50 0.57 0.69 0.79 0.82 0.86 0.87 0.92 0.98

GEFSGL_prec_meanprecacc_198.txt.gz
Total_Precipitation_Accumulation
1.13 1.14 1.16 1.17 1.16 1.14 1.09 1.00 1.04 1.06 1.05 1.01 1.03 1.07 1.11 1.15 1.19 1.23 1.22 1.32 1.35 1.37 1.39 1.51 1.60 1.73 1.73 1.63 1.68 1.77 1.89 1.99 1.77 1.72 1.68 1.48 1.39 1.25 1.17 1.11 0.97 0.90 0.78
1.02 1.11 1.24 1.22 1.15 1.06 0.97 0.91 0.96 0.99 0.99 0.97 1.00 1.04 1.04 1.08 1.17 1.23 1.25 1.30 1.32 1.29 1.32 1.44 1.50 1.58 1.68 1.61 1.54 1.54 1.69 1.86 1.84 1.82 1.91 1.83 1.62 1.46 1.38 1.28 1.02 0.87 0.84
1.01 1.10 1.17 1.14 1.09 0.98 0.87 0.88 0.88 0.88 0.93 0.91 0.86 0.87 0.89 0.97 1.09 1.14 1.18 1.22 1.29 1.34 1.32 1.32 1.31 1.40 1.57 1.69 1.66 1.63 1.68 1.80 1.93 1.92 2.00 2.03 1.81 1.60 1.60 1.43 1.23 1.22 0.92
0.91 0.95 0.96 0.91 0.89 0.90 0.89 0.84 0.81 0.85 0.88 0.90 0.88 0.90 0.93 0.95 1.01 1.04 1.05 1.04 1.05 1.10 1.14 1.14 1.12 1.15 1.31 1.60 1.69 1.79 1.84 1.84 1.97 2.01 2.06 2.11 2.12 1.90 1.83 1.67 1.54 1.43 1.23
0.84 0.85 0.85 0.86 0.86 0.84 0.82 0.77 0.77 0.77 0.73 0.82 0.88 0.88 0.90 0.89 0.81 0.85 0.90 0.84 0.84 0.82 0.84 0.86 0.87 0.92 0.94 1.07 1.24 1.49 1.68 1.76 1.80 1.93 2.01 2.08 2.11 2.17 1.93 1.79 1.70 1.65 1.55
0.66 0.67 0.79 0.87 0.85 0.83 0.75 0.71 0.70 0.71 0.75 0.83 0.86 0.82 0.78 0.68 0.72 0.77 0.78 0.77 0.75 0.74 0.72 0.72 0.73 0.75 0.76 0.81 0.85 1.02 1.27 1.50 1.74 1.93 2.00 2.05 2.09 2.15 2.10 1.95 1.85 1.72 1.69
0.60 0.62 0.64 0.72 0.79 0.76 0.69 0.66 0.65 0.69 0.75 0.80 0.83 0.86 0.82 0.82 0.79 0.77 0.82 0.78 0.77 0.74 0.74 0.74 0.63 0.58 0.64 0.66 0.71 0.74 0.88 1.03 1.16 1.52 1.77 1.82 1.90 2.00 2.16 2.11 2.04 2.00 1.93
0.65 0.67 0.64 0.64 0.71 0.74 0.71 0.69 0.72 0.75 0.76 0.80 0.84 0.88 0.92 0.87 0.84 0.82 0.81 0.74 0.76 0.81 0.79 0.79 0.74 0.69 0.69 0.75 0.81 0.78 0.73 0.76 0.85 0.94 1.07 1.24 1.45 1.77 2.02 2.14 2.24 2.26 2.26
0.67 0.68 0.66 0.65 0.70 0.75 0.75 0.79 0.85 0.90 0.83 0.81 0.88 0.97 1.04 1.03 0.94 0.83 0.80 0.75 0.79 0.82 0.78 0.78 0.79 0.71 0.69 0.65 0.72 0.79 0.78 0.74 0.74 0.81 0.83 0.98 1.13 1.33 1.59 1.77 1.89 2.05 2.30
0.74 0.70 0.68 0.73 0.78 0.81 0.89 1.02 1.09 1.11 1.04 1.00 0.98 1.04 1.09 1.12 1.01 0.85 0.80 0.79 0.85 0.92 0.96 0.94 0.89 0.81 0.74 0.69 0.69 0.76 0.79 0.76 0.80 0.83 0.83 0.81 0.84 0.93 1.11 1.27 1.40 1.61 1.85
0.91 0.89 0.86 0.90 0.99 1.06 1.20 1.30 1.37 1.34 1.38 1.36 1.28 1.25 1.28 1.23 1.16 0.97 0.91 0.90 1.00 1.14 1.15 1.08 1.01 0.92 0.79 0.74 0.72 0.74 0.75 0.80 0.91 0.98 1.00 0.95 0.89 0.83 0.87 1.00 1.19 1.28 1.40
1.10 1.10 1.12 1.18 1.10 1.12 1.34 1.43 1.54 1.63 1.60 1.52 1.51 1.45 1.42 1.37 1.19 1.04 0.97 0.99 1.05 1.18 1.25 1.18 1.08 0.96 0.80 0.72 0.67 0.64 0.64 0.65 0.71 0.81 0.87 0.90 0.89 0.82 0.83 0.95 1.17 1.33 1.33
1.30 1.31 1.35 1.39 1.44 1.46 1.59 1.64 1.67 1.69 1.66 1.60 1.60 1.59 1.54 1.50 1.37 1.11 1.03 1.02 1.01 1.06 1.12 1.12 1.05 0.92 0.82 0.71 0.68 0.63 0.57 0.57 0.65 0.71 0.75 0.83 0.87 0.86 0.89 1.01 1.17 1.36 1.38
1.43 1.44 1.54 1.68 1.73 1.74 1.84 1.84 1.83 1.82 1.76 1.75 1.74 1.70 1.66 1.64 1.58 1.41 1.21 1.11 1.05 0.99 1.01 1.06 1.03 0.93 0.82 0.79 0.77 0.69 0.61 0.66 0.74 0.75 0.78 0.86 0.95 0.98 1.00 1.00 1.11 1.22 1.30
1.56 1.60 1.72 1.86 1.95 1.99 1.88 1.87 1.87 1.91 1.85 1.79 1.78 1.76 1.79 1.75 1.64 1.50 1.40 1.33 1.28 1.22 1.17 1.19 1.20 1.10 1.00 0.96 0.97 0.95 0.92 0.87 0.81 0.82 0.88 0.94 1.01 1.04 1.03 1.06 1.11 1.15 1.12
1.63 1.68 1.78 1.85 1.96 1.98 1.95 1.85 1.73 1.65 1.60 1.51 1.53 1.55 1.55 1.55 1.49 1.32 1.23 1.20 1.22 1.30 1.26 1.26 1.33 1.34 1.28 1.20 1.15 1.13 1.10 1.04 0.99 1.00 1.02 1.02 1.01 1.02 1.01 1.08 1.16 1.17 1.15
1.70 1.75 1.77 1.77 1.84 1.92 1.93 1.89 1.80 1.70 1.58 1.45 1.38 1.33 1.28 1.26 1.25 1.24 1.25 1.24 1.22 1.22 1.20 1.28 1.39 1.45 1.48 1.45 1.36 1.26 1.21 1.14 1.08 1.07 1.06 1.07 1.07 1.12 1.16 1.19 1.24 1.27 1.25
1.66 1.71 1.67 1.65 1.71 1.84 1.89 1.93 1.95 1.87 1.79 1.67 1.53 1.42 1.27 1.16 1.14 1.18 1.24 1.25 1.22 1.18 1.21 1.35 1.45 1.51 1.59 1.59 1.48 1.40 1.32 1.22 1.16 1.16 1.18 1.21 1.20 1.22 1.23 1.21 1.23 1.25 1.27
1.58 1.63 1.69 1.75 1.80 1.86 1.92 1.99 2.01 1.93 1.88 1.77 1.57 1.39 1.25 1.15 1.11 1.15 1.14 1.10 1.17 1.24 1.30 1.44 1.52 1.54 1.48 1.44 1.39 1.37 1.30 1.25 1.22 1.21 1.20 1.18 1.16 1.19 1.23 1.26 1.27 1.31 1.28
1.49 1.60 1.71 1.70 1.71 1.77 1.87 1.97 2.00 1.99 1.97 1.92 1.78 1.51 1.29 1.16 1.12 1.17 1.12 1.11 1.16 1.19 1.22 1.31 1.41 1.46 1.45 1.40 1.36 1.29 1.25 1.22 1.20 1.19 1.18 1.16 1.18 1.19 1.17 1.21 1.26 1.23 1.21
1.51 1.49 1.57 1.58 1.59 1.63 1.70 1.77 1.83 1.82 1.76 1.73 1.69 1.53 1.38 1.23 1.22 1.19 1.15 1.15 1.13 1.11 1.17 1.28 1.35 1.34 1.29 1.26 1.27 1.22 1.19 1.20 1.18 1.16 1.19 1.21 1.22 1.21 1.14 1.12 1.11 1.10 1.09
1.58 1.53 1.42 1.42 1.44 1.51 1.55 1.58 1.61 1.57 1.53 1.51 1.48 1.39 1.35 1.26 1.27 1.24 1.16 1.12 1.06 1.01 1.02 1.09 1.17 1.20 1.16 1.12 1.14 1.16 1.15 1.12 1.14 1.12 1.11 1.12 1.14 1.11 1.06 1.06 1.07 1.09 1.12
1.50 1.46 1.35 1.27 1.23 1.31 1.33 1.36 1.39 1.37 1.37 1.37 1.34 1.24 1.18 1.20 1.16 1.09 1.03 0.98 0.95 0.95 0.96 1.01 1.04 1.03 1.00 0.96 0.98 1.02 1.03 0.99 1.00 1.02 1.05 1.07 1.06 1.01 1.00 1.01 1.00 1.04 1.08
1.40 1.38 1.33 1.22 1.11 1.10 1.18 1.29 1.31 1.30 1.29 1.21 1.10 1.02 1.00 1.01 0.96 0.86 0.82 0.82 0.82 0.80 0.80 0.83 0.80 0.76 0.78 0.81 0.84 0.85 0.84 0.81 0.80 0.84 0.86 0.91 0.94 0.91 0.90 0.92 0.88 0.93 1.05
1.17 1.19 1.20 1.15 1.04 0.99 1.08 1.18 1.16 1.10 1.05 0.98 0.89 0.86 0.83 0.80 0.79 0.77 0.74 0.73 0.71 0.70 0.64 0.64 0.66 0.65 0.66 0.66 0.66 0.65 0.62 0.60 0.58 0.61 0.65 0.71 0.80 0.85 0.86 0.88 0.92 1.00 1.09
0.97 0.97 0.98 0.96 0.91 0.87 0.92 1.01 1.02 0.95 0.92 0.84 0.74 0.72 0.73 0.74 0.76 0.76 0.72 0.67 0.65 0.62 0.57 0.58 0.61 0.60 0.58 0.57 0.54 0.49 0.45 0.43 0.44 0.49 0.51 0.58 0.70 0.79 0.82 0.86 0.87 0.93 0.99

GEFSGL_prec_meanprecacc_204.txt.gz
Total_Precipitation_Accumulation
1.14 1.17 1.18 1.19 1.19 1.17 1.13 1.05 1.08 1.11 1.12 1.06 1.08 1.13 1.16 1.20 1.25 1.29 1.27 1.37 1.40 1.42 1.44 1.55 1.65 1.79 1.81 1.71 1.75 1.84 1.95 2.05 1.82 1.75 1.72 1.52 1.42 1.28 1.20 1.14 1.00 0.95 0.82
1.05 1.14 1.29 1.26 1.21 1.11 1.01 0.96 0.99 1.03 1.04 1.02 1.05 1.08 1.07 1.12 1.23 1.31 1.32 1.36 1.39 1.36 1.39 1.51 1.57 1.64 1.74 1.67 1.61 1.61 1.77 1.94 1.91 1.86 1.96 1.89 1.69 1.53 1.45 1.35 1.08 0.93 0.90
1.04 1.14 1.25 1.19 1.13 1.01 0.90 0.92 0.93 0.93 0.98 0.96 0.91 0.91 0.94 1.01 1.14 1.21 1.27 1.30 1.35 1.40 1.38 1.39 1.37 1.46 1.62 1.74 1.73 1.70 1.75 1.88 2.02 2.00 2.07 2.12 1.89 1.67 1.69 1.52 1.33 1.32 1.01
0.93 0.98 1.02 0.96 0.92 0.93 0.92 0.89 0.86 0.89 0.93 0.95 0.92 0.95 0.97 0.99 1.04 1.08 1.11 1.11 1.11 1.16 1.19 1.19 1.17 1.21 1.37 1.69 1.78 1.88 1.92 1.94 2.07 2.10 2.14 2.19 2.19 1.97 1.90 1.74 1.60 1.51 1.31
0.87 0.88 0.90 0.92 0.91 0.89 0.86 0.81 0.80 0.81 0.76 0.87 0.93 0.92 0.93 0.92 0.85 0.89 0.94 0.88 0.89 0.86 0.87 0.90 0.91 0.98 1.01 1.17 1.33 1.58 1.78 1.86 1.91 2.03 2.09 2.16 2.18 2.25 2.01 1.86 1.77 1.73 1.62
0.69 0.70 0.83 0.93 0.90 0.87 0.80 0.75 0.74 0.75 0.80 0.88 0.92 0.87 0.82 0.71 0.76 0.81 0.82 0.81 0.79 0.78 0.76 0.77 0.78 0.82 0.83 0.88 0.92 1.10 1.36 1.60 1.83 2.03 2.09 2.14 2.17 2.24 2.20 2.05 1.94 1.80 1.75
0.64 0.66 0.67 0.78 0.84 0.81 0.73 0.70 0.71 0.75 0.82 0.87 0.91 0.95 0.90 0.88 0.84 0.83 0.87 0.83 0.81 0.79 0.78 0.79 0.67 0.62 0.68 0.71 0.78 0.83 0.96 1.11 1.25 1.61 1.86 1.90 1.98 2.09 2.27 2.21 2.14 2.08 1.98
0.69 0.73 0.69 0.69 0.77 0.80 0.76 0.72 0.76 0.80 0.82 0.87 0.90 0.94 0.98 0.92 0.89 0.87 0.87 0.80 0.81 0.85 0.82 0.82 0.78 0.73 0.73 0.80 0.87 0.84 0.80 0.84 0.93 1.03 1.15 1.33 1.55 1.87 2.12 2.24 2.33 2.35 2.34
0.72 0.75 0.72 0.70 0.75 0.79 0.79 0.82 0.88 0.93 0.86 0.85 0.92 1.02 1.08 1.07 0.99 0.90 0.86 0.79 0.83 0.86 0.82 0.81 0.82 0.75 0.73 0.69 0.77 0.84 0.83 0.82 0.84 0.92 0.94 1.09 1.23 1.43 1.68 1.86 1.99 2.15 2.39
0.80 0.76 0.74 0.78 0.82 0.85 0.93 1.06 1.12 1.14 1.07 1.03 1.01 1.07 1.12 1.17 1.07 0.92 0.86 0.83 0.90 0.97 1.02 0.99 0.93 0.86 0.78 0.73 0.73 0.82 0.86 0.85 0.89 0.92 0.92 0.91 0.94 1.03 1.21 1.37 1.50 1.72 1.96
0.98 0.96 0.92 0.95 1.03 1.10 1.25 1.35 1.41 1.37 1.41 1.39 1.31 1.28 1.31 1.26 1.20 1.01 0.96 0.95 1.06 1.21 1.21 1.13 1.04 0.95 0.81 0.77 0.76 0.79 0.82 0.88 0.99 1.06 1.06 1.01 0.96 0.92 0.97 1.09 1.28 1.37 1.47
1.15 1.16 1.18 1.24 1.14 1.15 1.37 1.46 1.57 1.66 1.64 1.56 1.55 1.48 1.44 1.40 1.22 1.07 1.00 1.03 1.09 1.22 1.28 1.20 1.12 1.00 0.83 0.74 0.70 0.67 0.69 0.70 0.76 0.87 0.93 0.95 0.95 0.88 0.89 1.01 1.23 1.39 1.38
1.35 1.35 1.39 1.43 1.47 1.49 1.61 1.67 1.71 1.73 1.70 1.64 1.64 1.63 1.58 1.53 1.40 1.14 1.05 1.04 1.03 1.07 1.14 1.14 1.08 0.96 0.85 0.74 0.72 0.67 0.62 0.63 0.72 0.78 0.82 0.89 0.92 0.90 0.92 1.04 1.20 1.39 1.40
1.48 1.48 1.58 1.71 1.75 1.77 1.86 1.86 1.86 1.85 1.80 1.79 1.79 1.75 1.70 1.69 1.62 1.44 1.24 1.13 1.07 1.01 1.02 1.08 1.05 0.95 0.84 0.81 0.80 0.72 0.65 0.71 0.79 0.79 0.82 0.90 0.98 1.02 1.03 1.03 1.14 1.24 1.32
1.60 1.64 1.75 1.89 1.97 2.02 1.91 1.90 1.92 1.97 1.91 1.85 1.84 1.81 1.84 1.79 1.69 1.54 1.44 1.37 1.30 1.24 1.19 1.20 1.21 1.11 1.02 0.98 1.01 0.99 0.97 0.92 0.86 0.86 0.91 0.97 1.04 1.08 1.07 1.10 1.14 1.18 1.16
1.67 1.72 1.81 1.89 1.99 2.01 1.98 1.88 1.77 1.69 1.65 1.55 1.56 1.59 1.59 1.60 1.53 1.36 1.27 1.24 1.26 1.33 1.28 1.28 1.36 1.37 1.31 1.24 1.20 1.18 1.16 1.09 1.05 1.05 1.08 1.07 1.06 1.07 1.06 1.14 1.22 1.23 1.20
1.73 1.78 1.80 1.80 1.87 1.95 1.97 1.92 1.83 1.73 1.62 1.49 1.42 1.37 1.32 1.31 1.30 1.28 1.28 1.28 1.26 1.25 1.23 1.31 1.43 1.49 1.51 1.48 1.39 1.29 1.24 1.17 1.12 1.12 1.12 1.13 1.12 1.17 1.21 1.24 1.29 1.33 1.30
1.71 1.75 1.70 1.68 1.74 1.86 1.91 1.95 1.97 1.89 1.82 1.70 1.58 1.48 1.33 1.21 1.20 1.24 1.29 1.29 1.27 1.22 1.25 1.39 1.50 1.55 1.62 1.62 1.51 1.44 1.36 1.28 1.22 1.23 1.26 1.29 1.27 1.28 1.29 1.26 1.27 1.29 1.31
1.63 1.68 1.72 1.78 1.82 1.87 1.93 2.01 2.03 1.95 1.91 1.79 1.59 1.43 1.32 1.20 1.16 1.20 1.18 1.15 1.22 1.30 1.35 1.49 1.57 1.58 1.52 1.47 1.43 1.41 1.34 1.30 1.26 1.25 1.25 1.23 1.22 1.24 1.27 1.30 1.31 1.35 1.31
1.54 1.64 1.74 1.72 1.73 1.78 1.89 1.99 2.02 2.01 1.99 1.94 1.81 1.54 1.33 1.20 1.15 1.19 1.14 1.14 1.19 1.22 1.25 1.34 1.44 1.50 1.48 1.44 1.40 1.33 1.28 1.26 1.22 1.21 1.21 1.20 1.23 1.24 1.20 1.24 1.28 1.25 1.23
1.53 1.52 1.59 1.59 1.60 1.64 1.71 1.78 1.85 1.84 1.77 1.74 1.70 1.55 1.40 1.25 1.24 1.20 1.17 1.17 1.15 1.13 1.19 1.30 1.37 1.37 1.32 1.29 1.30 1.25 1.23 1.23 1.21 1.19 1.23 1.25 1.26 1.24 1.17 1.14 1.13 1.12 1.10
1.59 1.54 1.43 1.43 1.44 1.51 1.56 1.58 1.61 1.58 1.54 1.52 1.49 1.40 1.36 1.27 1.28 1.25 1.18 1.13 1.08 1.02 1.03 1.10 1.18 1.22 1.19 1.15 1.17 1.20 1.19 1.16 1.18 1.16 1.15 1.16 1.17 1.14 1.09 1.08 1.09 1.11 1.14
1.51 1.47 1.36 1.28 1.23 1.31 1.34 1.37 1.39 1.38 1.38 1.38 1.35 1.25 1.19 1.20 1.17 1.10 1.04 0.98 0.95 0.95 0.97 1.02 1.06 1.07 1.04 1.02 1.04 1.08 1.09 1.06 1.06 1.09 1.11 1.11 1.10 1.04 1.02 1.04 1.02 1.06 1.09
1.40 1.38 1.33 1.22 1.11 1.10 1.19 1.30 1.32 1.30 1.30 1.22 1.11 1.03 1.01 1.02 0.97 0.87 0.83 0.83 0.83 0.81 0.81 0.86 0.84 0.80 0.82 0.85 0.88 0.89 0.89 0.86 0.85 0.89 0.90 0.94 0.97 0.92 0.92 0.93 0.90 0.94 1.06
1.17 1.19 1.21 1.16 1.04 0.99 1.08 1.18 1.17 1.10 1.06 0.99 0.89 0.86 0.83 0.81 0.80 0.78 0.75 0.74 0.72 0.72 0.65 0.65 0.67 0.66 0.67 0.67 0.66 0.66 0.63 0.60 0.59 0.62 0.66 0.73 0.81 0.86 0.87 0.88 0.92 1.01 1.10
0.98 0.98 0.99 0.97 0.92 0.87 0.92 1.01 1.02 0.96 0.93 0.84 0.74 0.72 0.74 0.75 0.77 0.77 0.74 0.69 0.66 0.63 0.58 0.59 0.62 0.61 0.58 0.57 0.54 0.49 0.46 0.43 0.45 0.49 0.51 0.58 0.70 0.80 0.82 0.87 0.88 0.93 0.99

GEFSGL_prec_meanprecacc_210.txt.gz
Total_Precipitation_Accumulation
1.16 1.19 1.22 1.23 1.23 1.23 1.19 1.11 1.16 1.21 1.19 1.14 1.16 1.21 1.23 1.26 1.31 1.36 1.32 1.42 1.46 1.49 1.51 1.65 1.75 1.91 1.92 1.79 1.84 1.95 2.06 2.20 1.97 1.84 1.79 1.60 1.51 1.37 1.29 1.20 1.05 1.00 0.87
1.09 1.17 1.32 1.31 1.27 1.17 1.08 1.04 1.07 1.09 1.10 1.09 1.13 1.16 1.12 1.17 1.28 1.35 1.36 1.41 1.43 1.41 1.46 1.63 1.68 1.76 1.87 1.78 1.71 1.72 1.88 2.08 2.05 1.96 2.03 1.97 1.77 1.61 1.54 1.42 1.12 0.96 0.94
1.08 1.17 1.28 1.24 1.19 1.07 0.97 0.99 0.99 0.98 1.03 1.03 0.99 0.99 1.00 1.07 1.20 1.26 1.31 1.36 1.41 1.46 1.47 1.49 1.48 1.59 1.74 1.86 1.85 1.81 1.86 2.00 2.16 2.12 2.15 2.20 1.96 1.74 1.79 1.61 1.41 1.42 1.06
0.96 1.02 1.08 1.03 0.99 0.98 0.97 0.94 0.91 0.94 1.00 1.03 1.01 1.02 1.05 1.05 1.10 1.14 1.18 1.18 1.20 1.24 1.27 1.28 1.28 1.32 1.48 1.82 1.89 1.98 2.02 2.06 2.22 2.23 2.25 2.29 2.30 2.07 2.04 1.85 1.72 1.64 1.41
0.91 0.94 0.97 1.00 1.00 0.97 0.92 0.86 0.86 0.87 0.83 0.94 1.00 1.00 1.01 0.99 0.90 0.96 1.01 0.96 0.99 0.96 0.96 0.99 1.00 1.07 1.11 1.27 1.40 1.67 1.88 1.98 2.03 2.14 2.19 2.25 2.27 2.35 2.13 1.98 1.92 1.88 1.76
0.72 0.76 0.90 1.00 0.97 0.95 0.85 0.81 0.80 0.81 0.87 0.95 0.98 0.93 0.88 0.76 0.82 0.88 0.89 0.89 0.90 0.89 0.85 0.85 0.85 0.89 0.92 0.96 0.97 1.15 1.43 1.68 1.92 2.13 2.19 2.23 2.25 2.33 2.32 2.18 2.08 1.94 1.87
0.67 0.70 0.73 0.84 0.90 0.86 0.77 0.74 0.77 0.81 0.88 0.93 0.97 1.02 0.98 0.95 0.92 0.90 0.93 0.89 0.89 0.87 0.84 0.85 0.72 0.67 0.75 0.75 0.82 0.87 1.00 1.16 1.31 1.68 1.94 1.97 2.05 2.17 2.38 2.32 2.26 2.20 2.09
0.72 0.76 0.74 0.74 0.82 0.84 0.80 0.77 0.83 0.88 0.91 0.95 0.99 1.02 1.07 0.99 0.95 0.92 0.92 0.84 0.86 0.90 0.86 0.86 0.82 0.77 0.76 0.84 0.92 0.89 0.83 0.87 0.96 1.07 1.19 1.37 1.60 1.94 2.21 2.34 2.47 2.50 2.49
0.74 0.77 0.75 0.74 0.79 0.83 0.83 0.87 0.94 1.00 0.94 0.93 1.01 1.09 1.15 1.13 1.05 0.94 0.90 0.83 0.87 0.92 0.88 0.86 0.87 0.80 0.78 0.73 0.83 0.89 0.87 0.85 0.86 0.94 0.96 1.12 1.26 1.47 1.75 1.94 2.09 2.27 2.52
0.83 0.78 0.77 0.82 0.88 0.91 0.98 1.13 1.19 1.21 1.13 1.09 1.07 1.12 1.17 1.22 1.13 0.97 0.91 0.87 0.96 1.03 1.09 1.05 0.99 0.90 0.83 0.77 0.77 0.86 0.90 0.88 0.93 0.96 0.95 0.94 0.97 1.07 1.26 1.42 1.57 1.81 2.04
1.02 0.99 0.95 0.98 1.09 1.17 1.32 1.43 1.48 1.45 1.49 1.46 1.38 1.33 1.35 1.31 1.25 1.04 1.00 1.00 1.12 1.28 1.27 1.20 1.11 1.00 0.84 0.79 0.77 0.81 0.85 0.90 1.01 1.09 1.09 1.05 1.01 0.98 1.03 1.16 1.34 1.44 1.54
1.20 1.20 1.22 1.28 1.17 1.20 1.44 1.53 1.65 1.74 1.71 1.61 1.63 1.56 1.50 1.45 1.26 1.09 1.03 1.06 1.14 1.28 1.34 1.26 1.16 1.03 0.85 0.76 0.71 0.68 0.70 0.71 0.78 0.89 0.96 1.00 1.00 0.94 0.96 1.08 1.29 1.44 1.43
1.40 1.42 1.46 1.50 1.53 1.56 1.67 1.74 1.78 1.80 1.77 1.72 1.72 1.70 1.64 1.59 1.46 1.20 1.11 1.10 1.09 1.11 1.17 1.17 1.10 0.98 0.86 0.75 0.73 0.69 0.64 0.65 0.74 0.81 0.85 0.93 0.97 0.95 0.97 1.09 1.24 1.42 1.44
1.56 1.58 1.67 1.80 1.82 1.83 1.93 1.94 1.94 1.94 1.89 1.87 1.86 1.82 1.77 1.76 1.70 1.52 1.30 1.17 1.10 1.03 1.05 1.11 1.07 0.97 0.85 0.81 0.81 0.73 0.66 0.72 0.81 0.82 0.85 0.93 1.02 1.05 1.06 1.06 1.17 1.28 1.37
1.65 1.70 1.83 1.97 2.06 2.09 1.98 2.00 2.03 2.08 2.01 1.93 1.90 1.88 1.90 1.86 1.75 1.59 1.47 1.39 1.33 1.27 1.22 1.23 1.23 1.13 1.03 1.00 1.02 1.01 0.98 0.94 0.89 0.89 0.95 1.01 1.08 1.12 1.12 1.15 1.19 1.24 1.23
1.72 1.77 1.87 1.96 2.08 2.08 2.05 1.95 1.84 1.76 1.71 1.60 1.60 1.63 1.63 1.63 1.57 1.39 1.30 1.27 1.29 1.35 1.31 1.32 1.40 1.41 1.34 1.28 1.24 1.22 1.19 1.13 1.08 1.10 1.12 1.12 1.12 1.12 1.12 1.20 1.30 1.32 1.29
1.78 1.83 1.85 1.86 1.93 2.02 2.03 1.98 1.87 1.76 1.65 1.52 1.45 1.39 1.34 1.33 1.33 1.30 1.30 1.30 1.28 1.27 1.24 1.34 1.47 1.54 1.56 1.52 1.44 1.34 1.29 1.22 1.16 1.16 1.17 1.18 1.17 1.21 1.25 1.28 1.35 1.39 1.37
1.77 1.82 1.77 1.75 1.82 1.94 1.98 2.01 2.01 1.93 1.85 1.73 1.60 1.50 1.34 1.23 1.21 1.26 1.30 1.30 1.28 1.24 1.27 1.42 1.53 1.57 1.64 1.64 1.54 1.47 1.39 1.32 1.27 1.28 1.30 1.34 1.33 1.33 1.33 1.30 1.31 1.33 1.36
1.71 1.75 1.79 1.84 1.88 1.93 1.98 2.05 2.07 1.98 1.93 1.81 1.60 1.44 1.33 1.22 1.17 1.22 1.19 1.15 1.23 1.31 1.37 1.52 1.59 1.59 1.53 1.49 1.45 1.43 1.37 1.32 1.30 1.29 1.29 1.28 1.27 1.29 1.32 1.35 1.36 1.42 1.37
1.60 1.72 1.81 1.77 1.77 1.81 1.91 2.01 2.04 2.02 2.00 1.96 1.83 1.55 1.35 1.22 1.17 1.21 1.16 1.15 1.20 1.24 1.27 1.36 1.46 1.51 1.49 1.45 1.41 1.34 1.30 1.27 1.24 1.24 1.24 1.24 1.28 1.29 1.26 1.29 1.33 1.30 1.27
1.57 1.57 1.64 1.64 1.64 1.67 1.74 1.80 1.86 1.85 1.78 1.75 1.71 1.57 1.43 1.29 1.28 1.24 1.19 1.19 1.17 1.15 1.20 1.31 1.38 1.37 1.32 1.29 1.31 1.27 1.24 1.25 1.23 1.22 1.26 1.28 1.30 1.28 1.21 1.18 1.17 1.16 1.15
1.62 1.59 1.47 1.47 1.48 1.54 1.58 1.60 1.63 1.59 1.55 1.53 1.50 1.41 1.37 1.29 1.29 1.26 1.18 1.14 1.08 1.03 1.04 1.10 1.18 1.22 1.19 1.16 1.18 1.21 1.20 1.18 1.20 1.19 1.18 1.18 1.20 1.17 1.12 1.12 1.14 1.17 1.21
1.54 1.50 1.39 1.31 1.26 1.33 1.35 1.38 1.41 1.39 1.39 1.39 1.36 1.26 1.20 1.21 1.17 1.10 1.04 0.99 0.96 0.96 0.97 1.02 1.06 1.07 1.05 1.02 1.04 1.09 1.10 1.07 1.07 1.11 1.14 1.15 1.15 1.10 1.09 1.11 1.10 1.15 1.17
1.44 1.42 1.36 1.25 1.13 1.11 1.19 1.31 1.33 1.31 1.31 1.23 1.12 1.04 1.01 1.02 0.97 0.87 0.83 0.83 0.83 0.81 0.82 0.86 0.84 0.81 0.83 0.86 0.89 0.90 0.90 0.86 0.85 0.90 0.92 0.98 1.02 0.98 0.99 0.99 0.95 0.99 1.10
1.20 1.22 1.23 1.17 1.06 1.00 1.09 1.19 1.17 1.11 1.07 1.00 0.90 0.87 0.84 0.82 0.80 0.78 0.75 0.74 0.73 0.72 0.66 0.66 0.68 0.67 0.68 0.68 0.67 0.66 0.64 0.61 0.60 0.62 0.67 0.74 0.83 0.87 0.88 0.90 0.93 1.02 1.11
1.01 1.00 1.01 0.99 0.94 0.90 0.95 1.03 1.03 0.96 0.93 0.85 0.74 0.72 0.74 0.76 0.77 0.78 0.74 0.69 0.67 0.63 0.59 0.59 0.62 0.62 0.59 0.58 0.55 0.50 0.46 0.44 0.46 0.50 0.52 0.60 0.72 0.81 0.84 0.88 0.89 0.94 1.00

GEFSGL_prec_meanprecacc_216.txt.gz
Total_Precipitation_Accumulation
1.20 1.24 1.27 1.29 1.28 1.27 1.22 1.14 1.19 1.24 1.23 1.19 1.21 1.28 1.30 1.31 1.36 1.42 1.39 1.51 1.55 1.56 1.59 1.72 1.82 1.97 1.97 1.82 1.90 2.02 2.13 2.28 2.05 1.89 1.84 1.64 1.55 1.41 1.33 1.25 1.09 1.04 0.92
1.16 1.24 1.37 1.35 1.32 1.22 1.11 1.07 1.10 1.12 1.13 1.13 1.19 1.22 1.18 1.22 1.34 1.41 1.42 1.49 1.54 1.52 1.55 1.71 1.74 1.81 1.90 1.81 1.75 1.77 1.94 2.15 2.12 2.01 2.07 2.00 1.80 1.63 1.57 1.46 1.16 1.00 0.99
1.16 1.23 1.33 1.29 1.24 1.11 1.02 1.03 1.03 1.04 1.08 1.08 1.05 1.05 1.06 1.14 1.29 1.33 1.40 1.45 1.51 1.57 1.57 1.56 1.54 1.66 1.80 1.91 1.90 1.87 1.92 2.07 2.23 2.17 2.17 2.23 1.99 1.76 1.82 1.66 1.47 1.47 1.12
1.01 1.07 1.12 1.07 1.03 1.04 1.04 1.00 0.97 1.02 1.07 1.08 1.07 1.09 1.12 1.14 1.18 1.24 1.28 1.27 1.28 1.31 1.34 1.35 1.36 1.40 1.57 1.90 1.95 2.03 2.07 2.11 2.27 2.28 2.29 2.32 2.33 2.10 2.09 1.89 1.76 1.68 1.46
0.95 0.98 1.03 1.07 1.06 1.03 0.99 0.92 0.93 0.94 0.88 0.99 1.07 1.06 1.07 1.06 0.98 1.05 1.10 1.05 1.09 1.05 1.04 1.05 1.07 1.14 1.17 1.32 1.44 1.70 1.92 2.02 2.07 2.19 2.23 2.27 2.28 2.38 2.16 2.02 1.96 1.91 1.80
0.77 0.82 0.96 1.06 1.03 1.00 0.90 0.86 0.85 0.86 0.94 1.03 1.05 1.00 0.94 0.81 0.88 0.96 0.98 0.98 1.00 0.98 0.91 0.90 0.91 0.97 0.98 1.01 1.03 1.20 1.47 1.71 1.96 2.16 2.22 2.25 2.27 2.36 2.35 2.22 2.13 2.00 1.91
0.71 0.75 0.79 0.88 0.93 0.89 0.80 0.79 0.81 0.86 0.95 1.00 1.03 1.08 1.04 1.01 0.98 0.97 1.00 0.95 0.94 0.92 0.89 0.90 0.78 0.73 0.82 0.81 0.88 0.93 1.05 1.20 1.35 1.72 1.97 1.99 2.07 2.19 2.41 2.36 2.31 2.25 2.14
0.77 0.80 0.77 0.78 0.86 0.88 0.84 0.83 0.90 0.95 0.99 1.04 1.05 1.09 1.15 1.06 1.06 1.03 0.99 0.88 0.89 0.94 0.91 0.92 0.87 0.83 0.84 0.90 0.96 0.93 0.87 0.90 0.99 1.09 1.21 1.39 1.62 1.96 2.24 2.38 2.52 2.56 2.54
0.79 0.80 0.78 0.78 0.83 0.87 0.86 0.92 1.02 1.09 1.03 1.02 1.09 1.17 1.22 1.21 1.15 1.03 0.96 0.87 0.91 0.95 0.92 0.91 0.91 0.85 0.86 0.81 0.91 0.96 0.93 0.89 0.90 0.98 1.00 1.15 1.29 1.50 1.78 1.98 2.14 2.33 2.56
0.89 0.85 0.86 0.92 0.94 0.95 1.04 1.21 1.29 1.30 1.24 1.23 1.17 1.20 1.23 1.29 1.22 1.05 0.97 0.92 1.00 1.08 1.13 1.10 1.05 0.98 0.93 0.88 0.87 0.94 0.95 0.92 0.96 0.99 0.98 0.97 1.00 1.09 1.29 1.45 1.61 1.85 2.09
1.09 1.09 1.08 1.14 1.19 1.25 1.41 1.54 1.60 1.59 1.65 1.61 1.49 1.42 1.42 1.40 1.33 1.12 1.08 1.05 1.17 1.32 1.31 1.24 1.16 1.06 0.91 0.85 0.83 0.85 0.87 0.93 1.03 1.11 1.11 1.07 1.03 1.00 1.05 1.19 1.38 1.48 1.59
1.29 1.30 1.33 1.42 1.32 1.34 1.59 1.68 1.82 1.96 1.94 1.82 1.79 1.72 1.64 1.57 1.36 1.18 1.12 1.12 1.18 1.30 1.37 1.30 1.20 1.07 0.88 0.78 0.73 0.71 0.72 0.73 0.79 0.91 0.98 1.02 1.03 0.96 0.98 1.11 1.32 1.47 1.46
1.50 1.53 1.61 1.74 1.84 1.80 1.88 1.94 1.97 1.99 1.97 1.92 1.93 1.88 1.80 1.72 1.58 1.30 1.20 1.16 1.12 1.13 1.19 1.19 1.13 1.01 0.89 0.77 0.75 0.72 0.66 0.67 0.76 0.84 0.88 0.96 1.00 0.98 1.00 1.12 1.27 1.46 1.47
1.68 1.70 1.81 1.96 2.02 2.04 2.13 2.13 2.13 2.15 2.18 2.17 2.10 2.00 1.92 1.86 1.77 1.59 1.36 1.22 1.13 1.05 1.06 1.13 1.09 0.99 0.86 0.83 0.82 0.75 0.69 0.76 0.85 0.85 0.87 0.95 1.04 1.07 1.09 1.09 1.21 1.32 1.41
1.79 1.84 1.97 2.13 2.25 2.30 2.19 2.21 2.25 2.26 2.18 2.07 2.00 1.97 1.98 1.93 1.81 1.64 1.51 1.42 1.35 1.29 1.23 1.24 1.24 1.14 1.05 1.02 1.05 1.04 1.02 0.98 0.92 0.92 0.98 1.04 1.10 1.15 1.14 1.17 1.23 1.28 1.27
1.86 1.90 2.01 2.11 2.25 2.24 2.21 2.09 1.97 1.86 1.81 1.68 1.67 1.70 1.69 1.68 1.61 1.43 1.33 1.29 1.31 1.38 1.33 1.33 1.41 1.42 1.36 1.30 1.27 1.25 1.21 1.15 1.12 1.13 1.16 1.16 1.16 1.16 1.16 1.23 1.33 1.35 1.32
1.91 1.94 1.97 1.98 2.08 2.17 2.16 2.08 1.95 1.82 1.70 1.56 1.49 1.44 1.38 1.37 1.36 1.33 1.33 1.32 1.29 1.29 1.26 1.36 1.49 1.56 1.57 1.54 1.46 1.36 1.31 1.24 1.19 1.19 1.19 1.20 1.19 1.23 1.28 1.31 1.37 1.42 1.41
1.86 1.91 1.85 1.84 1.91 2.04 2.06 2.06 2.06 1.97 1.88 1.76 1.64 1.54 1.37 1.25 1.23 1.27 1.32 1.32 1.29 1.25 1.28 1.44 1.54 1.59 1.66 1.66 1.55 1.47 1.40 1.32 1.27 1.28 1.31 1.35 1.34 1.35 1.35 1.32 1.34 1.36 1.41
1.80 1.82 1.85 1.90 1.94 1.99 2.04 2.08 2.11 2.03 1.97 1.84 1.63 1.47 1.36 1.24 1.19 1.23 1.21 1.16 1.24 1.32 1.38 1.53 1.60 1.60 1.54 1.50 1.46 1.43 1.37 1.33 1.30 1.30 1.30 1.29 1.29 1.31 1.35 1.38 1.40 1.47 1.43
1.65 1.78 1.86 1.82 1.82 1.86 1.96 2.05 2.08 2.06 2.03 1.98 1.84 1.57 1.37 1.25 1.19 1.23 1.17 1.16 1.21 1.24 1.28 1.37 1.46 1.52 1.50 1.45 1.41 1.34 1.30 1.28 1.25 1.25 1.25 1.25 1.29 1.30 1.27 1.31 1.35 1.32 1.29
1.60 1.61 1.69 1.69 1.68 1.71 1.78 1.83 1.89 1.87 1.80 1.77 1.73 1.59 1.45 1.31 1.31 1.28 1.24 1.22 1.18 1.16 1.21 1.32 1.38 1.38 1.33 1.30 1.31 1.27 1.25 1.25 1.24 1.22 1.26 1.28 1.30 1.29 1.21 1.18 1.18 1.18 1.17
1.65 1.62 1.51 1.51 1.52 1.58 1.62 1.63 1.65 1.61 1.56 1.54 1.51 1.42 1.38 1.30 1.31 1.28 1.22 1.19 1.11 1.05 1.05 1.11 1.19 1.23 1.20 1.16 1.18 1.21 1.20 1.18 1.20 1.19 1.18 1.19 1.21 1.18 1.13 1.14 1.15 1.19 1.24
1.57 1.53 1.41 1.34 1.29 1.37 1.39 1.41 1.43 1.41 1.40 1.39 1.36 1.26 1.20 1.21 1.18 1.11 1.06 1.00 0.97 0.97 0.99 1.03 1.07 1.08 1.05 1.02 1.04 1.09 1.10 1.07 1.08 1.11 1.14 1.15 1.15 1.11 1.10 1.12 1.12 1.17 1.21
1.46 1.43 1.38 1.27 1.16 1.15 1.23 1.34 1.35 1.33 1.33 1.24 1.13 1.05 1.02 1.03 0.98 0.88 0.84 0.84 0.84 0.81 0.82 0.87 0.84 0.81 0.83 0.87 0.89 0.90 0.90 0.87 0.86 0.90 0.92 0.98 1.02 0.99 0.99 1.00 0.96 1.00 1.12
1.22 1.23 1.25 1.20 1.10 1.03 1.11 1.21 1.19 1.13 1.10 1.02 0.92 0.89 0.86 0.83 0.81 0.79 0.76 0.75 0.73 0.72 0.66 0.66 0.69 0.67 0.68 0.68 0.67 0.66 0.64 0.61 0.60 0.63 0.67 0.74 0.83 0.88 0.89 0.91 0.95 1.04 1.13
1.04 1.04 1.04 1.01 0.96 0.92 0.96 1.05 1.05 0.98 0.95 0.87 0.76 0.75 0.76 0.78 0.79 0.79 0.75 0.70 0.68 0.64 0.60 0.61 0.63 0.62 0.59 0.58 0.55 0.50 0.47 0.44 0.46 0.51 0.52 0.60 0.73 0.82 0.85 0.89 0.90 0.95 1.01

GEFSGL_prec_meanprecacc_222.txt.gz
Total_Precipitation_Accumulation
1.24 1.28 1.31 1.32 1.32 1.30 1.25 1.17 1.22 1.27 1.27 1.22 1.24 1.32 1.35 1.37 1.44 1.50 1.47 1.57 1.61 1.62 1.65 1.77 1.85 2.02 2.01 1.87 1.95 2.07 2.17 2.33 2.08 1.91 1.86 1.66 1.58 1.45 1.37 1.28 1.11 1.07 0.95
1.21 1.30 1.42 1.39 1.36 1.26 1.15 1.10 1.14 1.17 1.18 1.19 1.25 1.29 1.25 1.30 1.42 1.47 1.48 1.55 1.59 1.57 1.60 1.76 1.79 1.86 1.95 1.86 1.80 1.82 1.99 2.20 2.17 2.04 2.10 2.03 1.84 1.69 1.61 1.49 1.19 1.03 1.01
1.23 1.29 1.38 1.34 1.29 1.16 1.07 1.09 1.10 1.11 1.14 1.16 1.12 1.12 1.12 1.21 1.36 1.42 1.47 1.52 1.57 1.64 1.65 1.62 1.59 1.72 1.85 1.98 1.97 1.93 1.96 2.10 2.25 2.20 2.19 2.24 2.01 1.82 1.88 1.70 1.51 1.50 1.14
1.06 1.12 1.17 1.13 1.09 1.09 1.09 1.05 1.02 1.08 1.12 1.14 1.14 1.17 1.19 1.21 1.26 1.32 1.37 1.34 1.36 1.40 1.43 1.44 1.42 1.45 1.60 1.95 2.00 2.07 2.09 2.13 2.29 2.30 2.30 2.33 2.35 2.13 2.12 1.92 1.79 1.70 1.48
1.01 1.04 1.10 1.12 1.11 1.08 1.04 0.97 0.98 1.00 0.93 1.04 1.13 1.12 1.14 1.12 1.04 1.13 1.18 1.12 1.16 1.12 1.08 1.10 1.12 1.19 1.22 1.36 1.47 1.73 1.95 2.04 2.10 2.22 2.25 2.29 2.30 2.40 2.18 2.04 1.98 1.93 1.82
0.83 0.89 1.05 1.12 1.08 1.06 0.96 0.91 0.89 0.91 1.00 1.07 1.09 1.04 1.00 0.88 0.96 1.03 1.05 1.04 1.05 1.02 0.94 0.93 0.95 1.03 1.05 1.06 1.05 1.23 1.50 1.74 2.00 2.21 2.26 2.28 2.29 2.39 2.38 2.24 2.15 2.02 1.94
0.76 0.80 0.85 0.95 1.00 0.96 0.87 0.84 0.86 0.93 1.05 1.07 1.08 1.14 1.11 1.09 1.09 1.10 1.08 1.01 0.98 0.95 0.92 0.94 0.82 0.78 0.87 0.85 0.91 0.96 1.08 1.24 1.38 1.75 2.00 2.02 2.10 2.22 2.44 2.38 2.32 2.27 2.15
0.85 0.86 0.82 0.85 0.93 0.97 0.92 0.89 0.96 1.03 1.05 1.09 1.11 1.16 1.22 1.14 1.15 1.09 1.03 0.92 0.92 0.97 0.94 0.96 0.91 0.86 0.88 0.93 0.99 0.97 0.91 0.95 1.05 1.15 1.26 1.44 1.66 1.98 2.26 2.39 2.54 2.58 2.58
0.88 0.88 0.86 0.87 0.93 0.96 0.94 1.00 1.10 1.20 1.12 1.09 1.15 1.23 1.28 1.27 1.20 1.06 0.99 0.91 0.94 0.99 0.95 0.95 0.95 0.90 0.92 0.87 0.96 1.00 0.98 0.95 0.97 1.04 1.04 1.17 1.30 1.52 1.81 2.01 2.18 2.37 2.61
0.96 0.92 0.96 1.04 1.06 1.07 1.15 1.32 1.42 1.45 1.38 1.35 1.26 1.27 1.29 1.35 1.28 1.10 1.03 0.98 1.05 1.12 1.17 1.15 1.11 1.03 0.98 0.93 0.92 0.99 1.00 0.97 1.00 1.02 1.00 0.99 1.01 1.12 1.33 1.48 1.63 1.87 2.11
1.20 1.21 1.22 1.32 1.38 1.41 1.57 1.70 1.76 1.76 1.86 1.80 1.64 1.54 1.51 1.47 1.41 1.23 1.19 1.15 1.25 1.39 1.37 1.29 1.20 1.10 0.94 0.89 0.87 0.89 0.91 0.95 1.05 1.12 1.12 1.08 1.06 1.03 1.08 1.22 1.41 1.51 1.62
1.43 1.48 1.53 1.65 1.57 1.57 1.80 1.89 2.02 2.15 2.11 2.01 2.01 1.90 1.77 1.68 1.47 1.31 1.25 1.23 1.27 1.37 1.42 1.34 1.23 1.09 0.89 0.80 0.76 0.73 0.75 0.75 0.81 0.92 0.99 1.03 1.04 0.98 1.00 1.14 1.35 1.50 1.49
1.66 1.72 1.83 1.95 2.06 2.08 2.17 2.22 2.23 2.25 2.21 2.14 2.15 2.10 1.98 1.85 1.69 1.41 1.31 1.28 1.22 1.21 1.26 1.24 1.16 1.04 0.91 0.79 0.78 0.75 0.69 0.68 0.77 0.85 0.89 0.98 1.02 0.99 1.01 1.13 1.29 1.47 1.50
1.79 1.80 1.91 2.06 2.14 2.20 2.33 2.35 2.33 2.31 2.32 2.32 2.29 2.21 2.09 1.99 1.88 1.69 1.47 1.32 1.22 1.12 1.13 1.19 1.15 1.03 0.91 0.87 0.86 0.79 0.72 0.77 0.86 0.86 0.89 0.96 1.04 1.08 1.10 1.10 1.22 1.33 1.42
1.87 1.92 2.05 2.20 2.32 2.39 2.29 2.33 2.36 2.37 2.30 2.18 2.12 2.10 2.12 2.06 1.93 1.74 1.59 1.49 1.41 1.34 1.28 1.28 1.27 1.17 1.07 1.04 1.07 1.06 1.03 0.99 0.93 0.93 0.99 1.05 1.11 1.15 1.15 1.18 1.24 1.29 1.28
1.96 2.01 2.12 2.20 2.32 2.33 2.31 2.21 2.08 1.97 1.91 1.77 1.77 1.82 1.84 1.82 1.72 1.49 1.37 1.33 1.35 1.41 1.35 1.35 1.42 1.43 1.37 1.31 1.28 1.26 1.23 1.16 1.12 1.14 1.17 1.18 1.17 1.18 1.17 1.25 1.35 1.37 1.35
2.00 2.03 2.05 2.06 2.15 2.25 2.25 2.18 2.04 1.89 1.76 1.63 1.56 1.50 1.44 1.43 1.41 1.37 1.36 1.35 1.32 1.31 1.28 1.37 1.50 1.56 1.58 1.55 1.47 1.37 1.32 1.25 1.20 1.19 1.19 1.21 1.20 1.24 1.28 1.32 1.39 1.44 1.43
1.95 1.98 1.92 1.90 1.98 2.10 2.12 2.13 2.12 2.03 1.95 1.82 1.69 1.59 1.42 1.29 1.25 1.29 1.35 1.34 1.31 1.27 1.30 1.45 1.55 1.60 1.66 1.66 1.55 1.48 1.40 1.33 1.28 1.29 1.32 1.35 1.35 1.35 1.36 1.33 1.35 1.37 1.42
1.90 1.91 1.93 1.96 2.00 2.04 2.08 2.12 2.13 2.05 1.99 1.87 1.66 1.50 1.39 1.28 1.23 1.26 1.23 1.18 1.25 1.34 1.40 1.54 1.61 1.61 1.55 1.50 1.46 1.44 1.38 1.33 1.30 1.30 1.30 1.30 1.29 1.32 1.36 1.39 1.41 1.48 1.44
1.73 1.86 1.94 1.88 1.86 1.91 1.99 2.08 2.10 2.07 2.05 2.01 1.87 1.60 1.39 1.26 1.21 1.24 1.19 1.18 1.23 1.26 1.29 1.39 1.49 1.53 1.51 1.46 1.42 1.35 1.31 1.28 1.25 1.25 1.25 1.25 1.29 1.30 1.27 1.31 1.35 1.33 1.31
1.65 1.66 1.75 1.74 1.72 1.75 1.81 1.85 1.90 1.88 1.81 1.78 1.74 1.60 1.46 1.32 1.31 1.28 1.24 1.23 1.20 1.18 1.24 1.34 1.40 1.39 1.34 1.31 1.31 1.27 1.25 1.26 1.24 1.23 1.27 1.29 1.30 1.29 1.22 1.19 1.18 1.18 1.17
1.72 1.70 1.57 1.55 1.57 1.63 1.66 1.66 1.68 1.64 1.58 1.55 1.51 1.43 1.39 1.30 1.31 1.29 1.23 1.20 1.13 1.08 1.09 1.15 1.22 1.25 1.21 1.17 1.19 1.21 1.21 1.19 1.21 1.20 1.19 1.20 1.22 1.19 1.14 1.14 1.16 1.19 1.24
1.62 1.59 1.48 1.37 1.32 1.40 1.42 1.43 1.45 1.43 1.42 1.41 1.37 1.27 1.21 1.22 1.19 1.12 1.06 1.02 0.99 0.99 1.00 1.05 1.09 1.10 1.07 1.04 1.05 1.10 1.11 1.08 1.09 1.12 1.15 1.16 1.16 1.12 1.11 1.13 1.13 1.18 1.22
1.49 1.46 1.41 1.30 1.18 1.16 1.25 1.36 1.38 1.35 1.35 1.26 1.14 1.06 1.04 1.05 0.99 0.89 0.84 0.84 0.85 0.82 0.83 0.87 0.85 0.82 0.85 0.88 0.91 0.92 0.91 0.88 0.87 0.92 0.94 1.00 1.03 1.00 1.00 1.01 0.97 1.01 1.13
1.28 1.27 1.27 1.22 1.11 1.05 1.14 1.23 1.22 1.15 1.11 1.04 0.94 0.90 0.87 0.85 0.83 0.80 0.76 0.75 0.74 0.73 0.67 0.67 0.70 0.69 0.70 0.71 0.70 0.69 0.67 0.64 0.62 0.65 0.69 0.76 0.84 0.89 0.90 0.92 0.96 1.05 1.14
1.09 1.08 1.07 1.04 0.99 0.94 0.99 1.08 1.07 0.99 0.96 0.88 0.78 0.76 0.77 0.79 0.80 0.80 0.76 0.70 0.68 0.65 0.61 0.61 0.64 0.64 0.61 0.61 0.59 0.54 0.51 0.48 0.49 0.52 0.53 0.61 0.73 0.82 0.85 0.89 0.91 0.96 1.02

GEFSGL_prec_meanprecacc_228.txt.gz
Total_Precipitation_Accumulation
1.25 1.29 1.33 1.34 1.34 1.32 1.27 1.19 1.24 1.29 1.29 1.25 1.28 1.36 1.39 1.41 1.49 1.57 1.52 1.63 1.66 1.68 1.71 1.84 1.93 2.09 2.08 1.94 2.03 2.14 2.24 2.40 2.15 1.96 1.88 1.69 1.62 1.49 1.41 1.32 1.16 1.11 0.98
1.22 1.32 1.44 1.42 1.39 1.29 1.18 1.13 1.16 1.19 1.21 1.22 1.29 1.32 1.27 1.33 1.46 1.53 1.52 1.59 1.64 1.62 1.66 1.81 1.84 1.92 2.00 1.92 1.88 1.90 2.06 2.26 2.23 2.10 2.14 2.06 1.88 1.72 1.65 1.55 1.23 1.06 1.03
1.24 1.31 1.41 1.36 1.31 1.20 1.11 1.12 1.12 1.13 1.18 1.21 1.17 1.16 1.16 1.25 1.39 1.46 1.52 1.57 1.63 1.69 1.70 1.67 1.64 1.77 1.92 2.06 2.06 2.01 2.04 2.17 2.32 2.24 2.22 2.28 2.05 1.85 1.92 1.76 1.56 1.56 1.18
1.10 1.14 1.20 1.16 1.13 1.14 1.14 1.08 1.04 1.10 1.15 1.19 1.18 1.21 1.22 1.25 1.30 1.36 1.42 1.40 1.41 1.44 1.47 1.50 1.50 1.52 1.68 2.04 2.09 2.17 2.18 2.20 2.34 2.35 2.33 2.37 2.39 2.17 2.17 1.97 1.85 1.76 1.53
1.05 1.09 1.15 1.18 1.15 1.13 1.08 1.00 1.01 1.02 0.96 1.07 1.17 1.15 1.17 1.17 1.09 1.18 1.23 1.16 1.21 1.18 1.14 1.14 1.15 1.24 1.27 1.41 1.51 1.79 2.01 2.10 2.16 2.27 2.30 2.34 2.36 2.46 2.24 2.10 2.05 1.99 1.86
0.84 0.91 1.09 1.18 1.13 1.09 0.99 0.94 0.92 0.94 1.03 1.11 1.14 1.10 1.05 0.94 1.03 1.10 1.11 1.09 1.10 1.07 0.98 0.97 0.97 1.04 1.08 1.09 1.08 1.26 1.53 1.78 2.05 2.26 2.31 2.34 2.37 2.48 2.47 2.33 2.23 2.09 1.99
0.77 0.82 0.86 0.96 1.03 0.99 0.89 0.87 0.89 0.96 1.09 1.15 1.16 1.20 1.18 1.17 1.17 1.17 1.13 1.04 1.01 0.99 0.96 0.98 0.85 0.80 0.89 0.87 0.94 1.00 1.11 1.27 1.42 1.79 2.06 2.07 2.17 2.30 2.53 2.48 2.41 2.34 2.21
0.86 0.87 0.84 0.87 0.95 0.98 0.94 0.92 0.99 1.06 1.11 1.16 1.15 1.19 1.26 1.19 1.21 1.13 1.06 0.94 0.95 1.00 0.97 1.00 0.95 0.89 0.91 0.96 1.03 0.99 0.94 0.98 1.08 1.18 1.31 1.50 1.73 2.07 2.35 2.48 2.61 2.64 2.62
0.89 0.89 0.88 0.90 0.96 1.01 0.99 1.05 1.15 1.25 1.18 1.14 1.20 1.28 1.32 1.32 1.25 1.10 1.02 0.94 0.98 1.02 0.98 0.97 0.98 0.93 0.96 0.92 0.99 1.03 1.00 0.98 1.00 1.07 1.07 1.21 1.34 1.55 1.84 2.04 2.22 2.41 2.65
0.98 0.94 0.98 1.07 1.12 1.17 1.26 1.42 1.50 1.51 1.44 1.39 1.31 1.33 1.35 1.41 1.34 1.15 1.08 1.01 1.09 1.17 1.21 1.19 1.15 1.07 1.02 0.98 0.95 1.01 1.02 1.00 1.03 1.04 1.03 1.01 1.04 1.14 1.35 1.50 1.66 1.90 2.15
1.22 1.23 1.25 1.36 1.43 1.48 1.65 1.78 1.83 1.82 1.91 1.85 1.69 1.60 1.59 1.56 1.49 1.32 1.28 1.23 1.32 1.45 1.43 1.34 1.25 1.15 0.98 0.92 0.90 0.91 0.93 0.97 1.07 1.15 1.15 1.11 1.09 1.06 1.11 1.24 1.44 1.54 1.66
1.45 1.50 1.56 1.70 1.63 1.63 1.85 1.94 2.07 2.19 2.16 2.07 2.07 1.98 1.88 1.80 1.60 1.44 1.38 1.35 1.35 1.44 1.50 1.40 1.28 1.14 0.94 0.84 0.79 0.76 0.77 0.76 0.82 0.94 1.01 1.06 1.07 1.02 1.03 1.16 1.37 1.52 1.51
1.68 1.75 1.87 2.00 2.12 2.15 2.23 2.27 2.29 2.31 2.28 2.22 2.22 2.17 2.08 1.97 1.81 1.53 1.41 1.38 1.32 1.28 1.32 1.30 1.20 1.07 0.94 0.82 0.81 0.77 0.71 0.70 0.80 0.87 0.91 1.00 1.03 1.00 1.02 1.14 1.30 1.48 1.51
1.80 1.83 1.95 2.11 2.18 2.25 2.38 2.40 2.38 2.37 2.40 2.41 2.36 2.25 2.14 2.06 1.95 1.76 1.54 1.40 1.29 1.18 1.18 1.23 1.19 1.07 0.94 0.90 0.89 0.81 0.75 0.81 0.89 0.88 0.90 0.97 1.06 1.09 1.11 1.11 1.23 1.34 1.43
1.89 1.96 2.09 2.24 2.35 2.43 2.33 2.36 2.40 2.42 2.36 2.24 2.17 2.13 2.15 2.10 1.98 1.80 1.63 1.52 1.44 1.37 1.30 1.29 1.29 1.18 1.10 1.07 1.10 1.09 1.07 1.03 0.96 0.96 1.01 1.06 1.13 1.17 1.16 1.19 1.24 1.30 1.29
1.99 2.04 2.14 2.22 2.35 2.37 2.35 2.24 2.12 2.01 1.97 1.83 1.81 1.85 1.86 1.85 1.76 1.57 1.44 1.38 1.38 1.44 1.37 1.36 1.43 1.43 1.37 1.31 1.28 1.27 1.24 1.18 1.14 1.15 1.18 1.19 1.18 1.19 1.18 1.26 1.36 1.38 1.36
2.04 2.06 2.09 2.09 2.18 2.28 2.28 2.20 2.07 1.93 1.81 1.68 1.60 1.54 1.47 1.46 1.44 1.40 1.40 1.40 1.37 1.35 1.30 1.38 1.50 1.57 1.59 1.55 1.47 1.38 1.33 1.26 1.20 1.20 1.20 1.21 1.21 1.25 1.29 1.33 1.40 1.45 1.44
1.98 2.02 1.96 1.94 2.02 2.14 2.16 2.16 2.15 2.06 1.99 1.87 1.74 1.63 1.46 1.32 1.28 1.31 1.36 1.35 1.33 1.29 1.32 1.47 1.57 1.61 1.67 1.67 1.56 1.48 1.41 1.33 1.28 1.29 1.32 1.36 1.35 1.36 1.36 1.34 1.35 1.38 1.43
1.93 1.93 1.95 1.98 2.02 2.07 2.12 2.16 2.17 2.08 2.04 1.92 1.72 1.54 1.42 1.30 1.24 1.26 1.24 1.19 1.26 1.35 1.42 1.57 1.64 1.63 1.57 1.52 1.48 1.45 1.39 1.34 1.31 1.31 1.31 1.30 1.30 1.32 1.36 1.39 1.41 1.48 1.45
1.76 1.90 1.96 1.90 1.89 1.94 2.04 2.13 2.14 2.12 2.11 2.06 1.91 1.62 1.41 1.27 1.21 1.25 1.19 1.18 1.24 1.28 1.31 1.41 1.51 1.55 1.53 1.48 1.44 1.37 1.32 1.30 1.26 1.26 1.26 1.26 1.30 1.31 1.28 1.32 1.36 1.33 1.31
1.68 1.69 1.79 1.79 1.77 1.79 1.85 1.89 1.95 1.92 1.84 1.80 1.76 1.61 1.47 1.32 1.32 1.28 1.25 1.24 1.21 1.19 1.25 1.35 1.41 1.40 1.35 1.32 1.33 1.29 1.27 1.27 1.25 1.24 1.28 1.30 1.32 1.30 1.23 1.20 1.20 1.19 1.19
1.76 1.75 1.64 1.64 1.65 1.70 1.70 1.70 1.71 1.66 1.60 1.56 1.53 1.44 1.40 1.31 1.32 1.30 1.24 1.21 1.14 1.09 1.10 1.15 1.22 1.25 1.22 1.18 1.20 1.23 1.23 1.21 1.23 1.21 1.21 1.21 1.24 1.21 1.16 1.16 1.18 1.21 1.27
1.67 1.65 1.54 1.46 1.40 1.46 1.47 1.48 1.49 1.46 1.45 1.43 1.39 1.28 1.22 1.23 1.20 1.14 1.08 1.03 1.00 1.00 1.01 1.05 1.09 1.10 1.07 1.04 1.06 1.11 1.12 1.09 1.10 1.13 1.17 1.18 1.18 1.14 1.13 1.16 1.15 1.21 1.25
1.54 1.51 1.46 1.36 1.23 1.20 1.27 1.38 1.40 1.38 1.37 1.29 1.17 1.08 1.05 1.05 1.01 0.91 0.87 0.86 0.86 0.84 0.84 0.88 0.86 0.83 0.85 0.89 0.92 0.92 0.92 0.89 0.89 0.93 0.96 1.02 1.06 1.03 1.03 1.03 1.00 1.04 1.16
1.32 1.32 1.34 1.28 1.15 1.08 1.16 1.24 1.23 1.18 1.14 1.06 0.95 0.92 0.89 0.87 0.85 0.83 0.80 0.78 0.76 0.75 0.68 0.68 0.71 0.70 0.71 0.72 0.72 0.72 0.70 0.67 0.65 0.68 0.73 0.80 0.88 0.93 0.94 0.95 0.98 1.07 1.16
1.12 1.13 1.14 1.11 1.04 0.98 1.03 1.10 1.09 1.02 0.99 0.90 0.79 0.78 0.80 0.81 0.82 0.82 0.78 0.73 0.70 0.66 0.61 0.62 0.65 0.64 0.62 0.62 0.61 0.56 0.54 0.52 0.53 0.57 0.58 0.66 0.77 0.86 0.89 0.92 0.93 0.98 1.04